Warning: Javascript must be enabled to use all the features on this page!


Page Loading - Please Wait...

* We've detected you're using a mobile device. Find our Next Generation Station Page here.
Click to hideNews Bulletins

Streamflow Measurements for the Nation


USGS 11313433 DUTCH SLOUGH BL JERSEY ISLAND RD A JERSEY ISLAND


Contra Costa County, California
Hydrologic Unit Code 18040003
Latitude  38°00'49", Longitude 121°40'00" NAD27
Gage datum 0 feet above NAVD88
Output formats
HTML table with channel data
HTML table without channel data
Tab-separated data with channel data
Tab-separated data without channel data
Graph of data
Reselect output format
Meas.
Number
  Date       Time Time
Datum
Measurement
Used?
  Who Measuring
Agency
Stream
flow
(ft3/s)
Gage
Height
(ft)
GH
Change
(ft)
Meas.
Duration
(hr)
Meas.
Rated
  Control Flow
Adjust.
Code
 
15152024-02-13 13:47:54PSTYesHRABAS/ACONLUSGS42803.61 Poor NONE
15142024-02-13 13:43:31PSTYesHRABAS/ACONLUSGS46203.59 Poor NONE
15132024-02-13 13:39:22PSTYesHRABAS/ACONLUSGS48303.59 Poor NONE
15122024-02-13 13:35:33PSTYesHRABAS/ACONLUSGS48403.58 Poor NONE
15112024-02-13 13:31:40PSTYesHRABAS/ACONLUSGS51003.58 Poor NONE
15102024-02-13 13:25:21PSTYesHRABAS/ACONLUSGS54503.58 Poor NONE
15092023-12-14 12:14:53PSTYesHRABAS/JHATFUSGS-71405.18 Poor NONE
15082023-12-14 12:09:51PSTYesHRABAS/JHATFUSGS-68705.14 Poor NONE
15072023-12-14 12:05:36PSTYesHRABAS/JHATFUSGS-65405.10 Poor NONE
15062023-12-14 12:01:18PSTYesHRABAS/JHATFUSGS-64305.06 Poor NONE
15052023-12-14 11:57:01PSTYesHRABAS/JHATFUSGS-63305.02 Poor NONE
15042023-12-14 11:53:28PSTYesHRABAS/JHATFUSGS-61804.99 Poor NONE
15032023-12-14 11:48:58PSTYesHRABAS/JHATFUSGS-58904.95 Poor NONE
15022023-12-14 11:43:57PSTYesHRABAS/JHATFUSGS-55704.91 Poor NONE
15012023-12-14 11:39:40PSTYesHRABAS/JHATFUSGS-54104.88 Poor NONE
15002023-12-14 11:35:38PSTYesHRABAS/JHATFUSGS-49504.84 Poor NONE
14992023-12-14 11:31:51PSTYesHRABAS/JHATFUSGS-46404.80 Poor NONE
14982023-12-14 11:28:19PSTYesHRABAS/JHATFUSGS-42104.77 Poor NONE
14972023-11-02 12:37:05PSTYesHRABAS/BGOPEUSGS32304.004.58 Poor NONE
14962023-11-02 12:32:50PSTYesHRABAS/BGOPEUSGS33804.58 Poor NONE
14952023-11-02 12:28:10PSTYesHRABAS/BGOPEUSGS35204.58 Poor NONE
14942023-11-02 12:12:29PSTYesHRABAS/BGOPEUSGS37104.58 Poor NONE
14932023-11-02 11:57:43PSTYesHRABAS/BGOPEUSGS38604.60 Poor NONE
14922023-11-02 11:53:12PSTYesHRABAS/BGOPEUSGS39404.61 Poor NONE
14912023-10-18 12:22:14PSTYesHRABAS/JEHATUSGS-1364.48 Poor NONE
14902023-10-18 12:18:21PSTYesHRABAS/JEHATUSGS3384.46 Poor NONE
14892023-10-18 12:14:32PSTYesHRABAS/JEHATUSGS7464.43 Poor NONE
14882023-10-18 12:10:43PSTYesHRABAS/JEHATUSGS11104.40 Poor NONE
14872023-10-18 12:06:50PSTYesHRABAS/JEHATUSGS14704.38 Poor NONE
14862023-10-18 12:03:01PSTYesHRABAS/JEHATUSGS18604.35 Poor NONE
14852023-08-22 11:08:11PSTYesHRABAS/HFUJIUSGS53103.92 Poor NONE
14842023-08-22 11:04:17PSTYesHRABAS/HFUJIUSGS55203.94 Poor NONE
14832023-08-22 11:00:12PSTYesHRABAS/HFUJIUSGS54303.97 Poor NONE
14822023-08-22 10:56:16PSTYesHRABAS/HFUJIUSGS50703.99 Poor NONE
14812023-08-22 10:52:21PSTYesHRABAS/HFUJIUSGS53704.02 Poor NONE
14802023-08-22 10:48:14PSTYesHRABAS/HFUJIUSGS51404.05 Poor NONE
14792023-06-20 09:12:53PSTYesJEHATFIELD/HUSGS76004.28 Poor NONE
14782023-06-20 09:08:19PSTYesJEHATFIELD/HUSGS74104.32 Poor NONE
14772023-06-20 09:04PSTYesJEHATFIELD/HUSGS74504.36 Poor NONE
14762023-06-20 08:59:59PSTYesJEHATFIELD/HUSGS77004.40 Poor NONE
14752023-06-20 08:55:42PSTYesJEHATFIELD/HUSGS74604.44 Poor NONE
14742023-06-20 08:51PSTYesJEHATFIELD/HUSGS76304.50 Poor NONE
14732023-05-04 09:53:02PSTYesJEHATFIELD/HUSGS65503.17 Poor NONE
14722023-05-04 09:47:51PSTYesJEHATFIELD/HUSGS66703.20 Poor NONE
14712023-05-04 09:43:03PSTYesJEHATFIELD/HUSGS67703.21 Poor NONE
14702023-05-04 09:38:42PSTYesJEHATFIELD/HUSGS68803.24 Poor NONE
14692023-05-04 09:34:32PSTYesJEHATFIELD/HUSGS69203.26 Poor NONE
14682023-05-04 09:16:39PSTYesJEHATFIELD/HUSGS72203.36 Poor NONE
14672023-03-24 09:02:56PSTYesJHATFIELD/BGUSGS93104.40 Poor NONE
14662023-03-24 08:59:31PSTYesJHATFIELD/BGUSGS92604.44 Poor NONE
14652023-03-24 08:55:37PSTYesJHATFIELD/BGUSGS95604.46 Poor NONE
14642023-03-24 08:52:07PSTYesJHATFIELD/BGUSGS94404.48 Poor NONE
14632023-03-24 08:48:08PSTYesJHATFIELD/BGUSGS95204.51 Poor NONE
14622023-03-24 08:44:28PSTYesJHATFIELD/BGUSGS92104.53 Poor NONE
14612023-01-26 11:24:58PSTYesHRABAS/JHATFUSGS75004.40 Poor NONE
14602023-01-26 11:20:56PSTYesHRABAS/JHATFUSGS72704.44 Poor NONE
14592023-01-26 11:17:14PSTYesHRABAS/JHATFUSGS73004.46 Poor NONE
14582023-01-26 11:13:38PSTYesHRABAS/JHATFUSGS74904.48 Poor NONE
14572023-01-26 11:09:57PSTYesHRABAS/JHATFUSGS73004.51 Poor NONE
14562023-01-26 11:06:09PSTYesHRABAS/JHATFUSGS71904.53 Poor NONE
14552022-11-29 10:54:18PSTYesHFUJIWARA/HRUSGS8664.77 Poor NONE
14542022-11-29 10:50:42PSTYesHFUJIWARA/HRUSGS5444.81 Poor NONE
14532022-11-29 10:47PSTYesHFUJIWARA/HRUSGS1634.84 Poor NONE
14522022-11-29 10:41:38PSTYesHFUJIWARA/HRUSGS-4204.85 Poor NONE
14512022-11-29 10:37:22PSTYesHFUJIWARA/HRUSGS-7334.87 Poor NONE
14502022-11-29 10:33:54PSTYesHFUJIWARA/HRUSGS-10204.90 Poor NONE
14492022-10-19 11:36:28PSTYesHRABAS,JHATFUSGS-82004.46 Poor NONE
14482022-10-19 11:32:41PSTYesHRABAS,JHATFUSGS-82904.44 Poor NONE
14472022-10-19 11:12:58PSTYesHRABAS,JHATFUSGS-80704.33 Poor NONE
14462022-10-19 10:59:28PSTYesHRABAS,JHATFUSGS-81204.24 Poor NONE
14452022-10-19 10:54:58PSTYesHRABAS,JHATFUSGS-82004.22 Poor NONE
14442022-10-19 10:51:17PSTYesHRABAS,JHATFUSGS-81704.19 Poor NONE
14432022-08-30 12:43:45PSTYesHRABAS/BGRIFUSGS51003.05 Poor NONE
14422022-08-30 12:40:14PSTYesHRABAS/BGRIFUSGS50103.04 Poor NONE
14412022-08-30 12:36:36PSTYesHRABAS/BGRIFUSGS53703.04 Poor NONE
14402022-08-30 12:33:05PSTYesHRABAS/BGRIFUSGS55203.04 Poor NONE
14392022-08-30 12:29:23PSTYesHRABAS/BGRIFUSGS54803.05 Poor NONE
14382022-08-30 12:25:27PSTYesHRABAS/BGRIFUSGS57503.05 Poor NONE
14372022-06-29 10:41:54PSTYesHRABAS/CCOLLUSGS77402.82 Poor NONE
14362022-06-29 10:37:13PSTYesHRABAS/CCOLLUSGS80702.86 Poor NONE
14352022-06-29 10:32:35PSTYesHRABAS/CCOLLUSGS79302.89 Poor NONE
14342022-06-29 10:27:46PSTYesHRABAS/CCOLLUSGS78602.92 Poor NONE
14332022-06-29 10:22:58PSTYesHRABAS/CCOLLUSGS80002.97 Poor NONE
14322022-06-29 10:17:07PSTYesHRABAS/CCOLLUSGS79003.01 Poor NONE
14312022-05-04 10:41:36PSTYesNSOEDER/HRABUSGS92403.07 Poor NONE
14302022-05-04 10:34:51PSTYesNSOEDER/HRABUSGS91003.14 Poor NONE
14292022-05-04 10:28:31PSTYesNSOEDER/HRABUSGS91803.18 Poor NONE
14282022-05-04 10:18:50PSTYesNSOEDER/HRABUSGS93803.27 Poor NONE
14272022-05-04 10:13:04PSTYesNSOEDER/HRABUSGS93303.32 Poor NONE
14262022-05-04 10:07:14PSTYesNSOEDER/HRABUSGS93503.38 Poor NONE
14252022-03-08 12:35:50PSTYesHRABAS/EDUBEUSGS72803.04 Poor NONE
14242022-03-08 12:30:47PSTYesHRABAS/EDUBEUSGS74803.08 Poor NONE
14232022-03-08 12:25:13PSTYesHRABAS/EDUBEUSGS77103.13 Poor NONE
14222022-03-08 12:19:52PSTYesHRABAS/EDUBEUSGS73703.17 Poor NONE
14212022-03-08 12:11:23PSTYesHRABAS/EDUBEUSGS76003.24 Poor NONE
14202022-03-08 12:06:29PSTYesHRABAS/EDUBEUSGS75103.28 Poor NONE
14192022-01-20 11:18:53PSTYesHRABAS,HFUJIUSGS45903.58 Poor NONE
14182022-01-20 11:13:02PSTYesHRABAS,HFUJIUSGS48903.58 Poor NONE
14172022-01-20 11:07:13PSTYesHRABAS,HFUJIUSGS50203.58 Poor NONE
14162022-01-20 11:01:42PSTYesHRABAS,HFUJIUSGS51703.59 Poor NONE
14152022-01-20 10:55:49PSTYesHRABAS,HFUJIUSGS54003.60 Poor NONE
14142022-01-20 10:49:21PSTYesHRABAS,HFUJIUSGS56603.60 Poor NONE
14132021-11-16 10:26:53PSTYesTVIOLETTE, HUSGS-85704.04 Poor NONE
14122021-11-16 10:21:08PSTYesTVIOLETTE, HUSGS-86203.99 Poor NONE
14112021-11-16 10:15:51PSTYesTVIOLETTE, HUSGS-83303.94 Poor NONE
14102021-11-16 10:09:55PSTYesTVIOLETTE, HUSGS-81003.89 Poor NONE
14092021-11-16 10:03:48PSTYesTVIOLETTE, HUSGS-77303.84 Poor NONE
14082021-11-16 09:57:57PSTYesTVIOLETTE, HUSGS-74003.77 Poor NONE
14072021-09-08 10:15:27PSTYesHRABAS, NSOEUSGS74303.26 Poor NONE
14062021-09-08 10:08:52PSTYesHRABAS, NSOEUSGS80103.30 Poor NONE
14052021-09-08 10:02:16PSTYesHRABAS, NSOEUSGS78003.35 Poor NONE
14042021-09-08 09:55:20PSTYesHRABAS, NSOEUSGS79703.40 Poor NONE
14032021-09-08 09:48:10PSTYesHRABAS, NSOEUSGS78903.46 Poor NONE
14022021-09-08 09:40:40PSTYesHRABAS, NSOEUSGS79203.51 Poor NONE
13952021-07-14 09:56:50PSTYesHRABAS/NSOEDUSGS90904.52 Poor NONE
13942021-07-14 09:48:46PSTYesHRABAS/NSOEDUSGS89204.59 Poor NONE
13932021-07-14 09:41:30PSTYesHRABAS/NSOEDUSGS89504.64 Poor NONE
13922021-07-14 09:33:50PSTYesHRABAS/NSOEDUSGS88304.69 Poor NONE
13912021-07-14 09:25:55PSTYesHRABAS/NSOEDUSGS91504.76 Poor NONE
13902021-07-14 09:18:26PSTYesHRABAS/NSOEDUSGS87104.83 Poor NONE
13892021-07-14 09:11:06PSTYesHRABAS/NSOEDUSGS92104.88 Poor NONE
13882021-07-14 09:04:16PSTYesHRABAS/NSOEDUSGS91104.93 Poor NONE
13872021-05-11 10:37:42PSTYesHRABAS, NSOEUSGS50202.33 Poor NONE
13862021-05-11 10:30:01PSTYesHRABAS, NSOEUSGS51402.36 Poor NONE
13852021-05-11 10:23PSTYesHRABAS, NSOEUSGS51802.39 Poor NONE
13842021-05-11 10:15:44PSTYesHRABAS, NSOEUSGS54102.43 Poor NONE
13832021-05-11 10:08:13PSTYesHRABAS, NSOEUSGS53502.48 Poor NONE
13822021-05-11 10:01:24PSTYesHRABAS, NSOEUSGS55102.52 Poor NONE
14012021-02-23 11:37:57PSTYesNSOEDER, HRAUSGS-68305.55 Poor NONE
14002021-02-23 11:31:29PSTYesNSOEDER, HRAUSGS-67505.52 Poor NONE
13992021-02-23 11:25:34PSTYesNSOEDER, HRAUSGS-70405.49 Poor NONE
13982021-02-23 11:19:29PSTYesNSOEDER, HRAUSGS-68405.45 Poor NONE
13972021-02-23 11:13:14PSTYesNSOEDER, HRAUSGS-72905.42 Poor NONE
13962021-02-23 11:06:51PSTYesNSOEDER, HRAUSGS-69905.38 Poor NONE
13812021-01-12 14:58:42PSTYesHR/ NWSUSGS-52506.18 Poor NONE
13802021-01-12 14:52:10PSTYesHR/ NWSUSGS-57306.18 Poor NONE
13792021-01-12 14:45:39PSTYesHR/ NWSUSGS-61406.18 Poor NONE
13782021-01-12 14:39:40PSTYesHR/ NWSUSGS-63206.18 Poor NONE
13772021-01-12 14:33:39PSTYesHR/ NWSUSGS-66006.17 Poor NONE
13762021-01-12 14:28:20PSTYesHR/ NWSUSGS-69706.15 Poor NONE
13752020-12-17 10:28:56PSTYesHR/ NWSUSGS44904.08 Poor NONE
13742020-12-17 10:24:54PSTYesHR/ NWSUSGS47904.08 Poor NONE
13732020-12-17 10:20:49PSTYesHR/ NWSUSGS46204.09 Poor NONE
13722020-12-17 10:16:34PSTYesHR/ NWSUSGS46304.11 Poor NONE
13712020-12-17 10:12:23PSTYesHR/ NWSUSGS46904.13 Poor NONE
13702020-12-17 10:08:52PSTYesHR/ NWSUSGS45904.14 Poor NONE
13692020-09-29 13:54:57PSTYesJEH/EBDUSGS-65204.72 Poor NONE
13682020-09-29 13:49:31PSTYesJEH/EBDUSGS-64704.69 Poor NONE
13672020-09-29 13:44:11PSTYesJEH/EBDUSGS-65304.66 Poor NONE
13662020-09-29 13:38:55PSTYesJEH/EBDUSGS-67804.62 Poor NONE
13652020-09-29 13:33:39PSTYesJEH/EBDUSGS-68404.62 Poor NONE
13642020-09-29 13:28:27PSTYesJEH/EBDUSGS-66304.59 Poor NONE
13632020-09-29 13:23:08PSTYesJEH/EBDUSGS-67404.52 Poor NONE
13622020-09-29 13:06:30PSTYesJEH/EBDUSGS-65404.41 Poor NONE
13612020-05-27 13:10:11PSTYesNVB, ALCUSGS53802.78 Poor NONE
13602020-05-27 13:05:20PSTYesNVB, ALCUSGS57402.82 Poor NONE
13592020-05-27 13:00:15PSTYesNVB, ALCUSGS55502.85 Poor NONE
13582020-05-27 12:54:45PSTYesNVB, ALCUSGS55702.90 Poor NONE
13572020-05-27 12:50:09PSTYesNVB, ALCUSGS56202.94 Poor NONE
13562020-05-27 12:45:30PSTYesNVB, ALCUSGS56002.98 Poor NONE
13552020-02-20 11:10:34PSTYesJH/ACUSGS-76705.16 Poor NONE
13542020-02-20 11:04:14PSTYesJH/ACUSGS-78205.12 Poor NONE
13532020-02-20 10:58:15PSTYesJH/ACUSGS-74905.07 Poor NONE
13522020-02-20 10:52:31PSTYesJH/ACUSGS-76205.03 Poor NONE
13512020-02-20 10:46:02PSTYesJH/ACUSGS-74004.98 Poor NONE
13502020-02-20 10:39:37PSTYesJH/ACUSGS-72604.93 Poor NONE
13492019-12-11 12:43:51PSTYesJH/ZHUSGS-81405.72 Poor NONE
13482019-12-11 12:40:01PSTYesJH/ZHUSGS-84005.69 Poor NONE
13472019-12-11 12:35:47PSTYesJH/ZHUSGS-81905.65 Poor NONE
13462019-12-11 12:31:37PSTYesJH/ZHUSGS-79905.62 Poor NONE
13452019-12-11 12:27:50PSTYesJH/ZHUSGS-80405.59 Poor NONE
13442019-12-11 12:24:30PSTYesJH/ZHUSGS-78005.57 Poor NONE
13432019-10-30 10:51:29PSTYesZH,JHUSGS49403.30 Poor NONE
13422019-10-30 10:44:25PSTYesZH,JHUSGS52003.33 Poor NONE
13412019-10-30 10:35:26PSTYesZH,JHUSGS52703.37 Poor NONE
13402019-10-30 10:28:27PSTYesZH,JHUSGS53903.40 Poor NONE
13392019-10-30 10:21:39PSTYesZH,JHUSGS53903.43 Poor NONE
13382019-10-30 10:14:49PSTYesZH,JHUSGS55903.47 Poor NONE
13372019-10-30 10:07:54PSTYesZH,JHUSGS56803.50 Poor NONE
13362019-10-30 10:02:13PSTYesZH,JHUSGS56703.53 Poor NONE
13352019-08-21 11:03:56PSTYesJH/ZHUSGS53203.69 Good NONE
13342019-08-21 10:58:57PSTYesJH/ZHUSGS52903.72 Good NONE
13332019-08-21 10:53:57PSTYesJH/ZHUSGS52403.75 Good NONE
13322019-08-21 10:49:13PSTYesJH/ZHUSGS51003.78 Good NONE
13312019-08-21 10:44:37PSTYesJH/ZHUSGS52903.81 Good NONE
13302019-08-21 10:40:03PSTYesJH/ZHUSGS52003.84 Good NONE
13292019-05-20 12:00:36PSTYesZH,JHUSGS62702.99 Good NONE
13282019-05-20 11:55:41PSTYesZH,JHUSGS63503.02 Good NONE
13272019-05-20 11:49:23PSTYesZH,JHUSGS67203.05 Good NONE
13262019-05-20 11:45:37PSTYesZH,JHUSGS65603.08 Good NONE
13252019-05-20 11:42:05PSTYesZH,JHUSGS65603.10 Good NONE
13242019-05-20 11:36:38PSTYesZH,JHUSGS66003.13 Good NONE
13232019-03-21 14:11:29PSTYesJH/ZHUSGS-94605.87 Good NONE
13222019-03-21 14:06:44PSTYesJH/ZHUSGS-96805.83 Good NONE
13212019-03-21 14:02:37PSTYesJH/ZHUSGS-94205.80 Good NONE
13202019-03-21 13:58:36PSTYesJH/ZHUSGS-97705.77 Good NONE
13192019-03-21 13:54:25PSTYesJH/ZHUSGS-94305.73 Good NONE
13182019-03-21 13:50:30PSTYesJH/ZHUSGS-95305.70 Good NONE
13172019-02-22 12:12:36PSTYesJH/MPUSGS63903.52 Good NONE
13162019-02-22 12:08:58PSTYesJH/MPUSGS64903.53 Good NONE
13152019-02-22 12:05:11PSTYesJH/MPUSGS64703.55 Good NONE
13142019-02-22 12:01:10PSTYesJH/MPUSGS64203.57 Good NONE
13132019-02-22 11:57:18PSTYesJH/MPUSGS68203.59 Good NONE
13122019-02-22 11:52:24PSTYesJH/MPUSGS64503.62 Good NONE
13112018-12-06 13:17:53PSTYesMP/CHUSGS-87205.83 GoodClearNONE
13102018-12-06 13:14:28PSTYesMP/CHUSGS-88405.80 GoodClearNONE
13092018-12-06 13:11:10PSTYesMP/CHUSGS-87705.78 GoodClearNONE
13082018-12-06 13:08:06PSTYesMP/CHUSGS-84605.76 GoodClearNONE
13072018-12-06 13:05:28PSTYesMP/CHUSGS-87005.75 GoodClearNONE
13062018-12-06 13:03:02PSTYesMP/CHUSGS-86105.74 GoodClearNONE
13052018-09-19 12:43:15PSTYesJH/ACUSGS-51004.73 Good NONE
13042018-09-19 12:39:09PSTYesJH/ACUSGS-53204.71 Good NONE
13032018-09-19 12:35:32PSTYesJH/ACUSGS-54204.69 Good NONE
13022018-09-19 12:31:58PSTYesJH/ACUSGS-56404.67 Good NONE
13012018-09-19 12:28:29PSTYesJH/ACUSGS-55504.66 Good NONE
13002018-09-19 12:25:19PSTYesJH/ACUSGS-55504.64 Good NONE
12992018-08-02 13:41:51PSTYesJH/HRUSGS44702.72 Good NONE
12982018-08-02 13:38:23PSTYesJH/HRUSGS45602.73 Good NONE
12972018-08-02 13:34:50PSTYesJH/HRUSGS46802.75 Good NONE
12962018-08-02 13:31:23PSTYesJH/HRUSGS46802.76 Good NONE
12952018-08-02 13:27:52PSTYesJH/HRUSGS47002.77 Good NONE
12942018-08-02 13:24:39PSTYesJH/HRUSGS48102.79 Good NONE
12932018-08-02 13:21:31PSTYesJH/HRUSGS49302.80 Good NONE
12922018-08-02 13:18:27PSTYesJH/HRUSGS49802.82 Good NONE
12912018-08-02 13:15:11PSTYesJH/HRUSGS48702.84 Good NONE
12902018-08-02 13:11:57PSTYesJH/HRUSGS49702.86 Good NONE
12892018-06-06 13:36:46PSTYesJH/RJUSGS55603.02 Good NONE
12882018-06-06 13:33:27PSTYesJH/RJUSGS53703.04 Good NONE
12872018-06-06 13:29:47PSTYesJH/RJUSGS57703.07 Good NONE
12862018-06-06 13:26:22PSTYesJH/RJUSGS55003.10 Good NONE
12852018-06-06 13:22:43PSTYesJH/RJUSGS55303.13 Good NONE
12842018-06-06 13:18:22PSTYesJH/RJUSGS56103.16 Good NONE
12832018-04-18 11:39:37PSTYesNS/CHUSGS57502.08 Good NONE
12822018-04-18 11:34:30PSTYesNS/CHUSGS62502.05 Good NONE
12812018-04-18 11:28:37PSTYesNS/CHUSGS61702.09 Good NONE
12802018-04-18 11:22:34PSTYesNS/CHUSGS64102.09 Good NONE
12792018-04-18 11:16:49PSTYesNS/CHUSGS63502.12 Good NONE
12782018-04-18 11:11:18PSTYesNS/CHUSGS65102.12 Good NONE
12772018-02-08 12:58:26PSTYesRPJ,CCHUSGS66404.57 Good NONE
12762018-02-08 12:53:15PSTYesRPJ,CCHUSGS63704.62 Good NONE
12752018-02-08 12:47:57PSTYesRPJ,CCHUSGS64704.66 Good NONE
12742018-02-08 12:42:10PSTYesRPJ,CCHUSGS65704.70 Good NONE
12732018-02-08 12:36:30PSTYesRPJ,CCHUSGS63904.76 Good NONE
12722018-02-08 12:30:10PSTYesRPJ,CCHUSGS61004.81 Good NONE
12712018-02-08 12:24:20PSTYesRPJ,CCHUSGS58404.86 Good NONE
12702018-02-08 12:18:46PSTYesRPJ,CCHUSGS55204.92 Good NONE
12692018-02-08 12:12:20PSTYesRPJ,CCHUSGS51904.97 Good NONE
12682018-02-08 12:05:21PSTYesRPJ,CCHUSGS47505.03 Good NONE
12672018-02-08 11:53:38PSTYesRPJ,CCHUSGS35805.13 Good NONE
12662018-02-08 11:44:58PSTYesRPJ,CCHUSGS25605.20 Good NONE
12652017-12-14 11:54:03PSTYesBF, CHUSGS-76005.29 Good NONE
12642017-12-14 11:47:15PSTYesBF, CHUSGS-82505.24 Good NONE
12632017-12-14 11:40:15PSTYesBF, CHUSGS-80605.19 Good NONE
12622017-12-14 11:33:31PSTYesBF, CHUSGS-83205.14 Good NONE
12612017-12-14 11:27:09PSTYesBF, CHUSGS-83305.10 Good NONE
12602017-12-14 11:20:18PSTYesBF, CHUSGS-79705.04 Good NONE
12592017-11-06 14:50:04PSTYesBF, RJUSGS-83505.39 Good NONE
12582017-11-06 14:45:33PSTYesBF, RJUSGS-87305.36 Good NONE
12572017-11-06 14:41:01PSTYesBF, RJUSGS-82205.35 Good NONE
12562017-11-06 14:36:36PSTYesBF, RJUSGS-84905.33 Good NONE
12552017-11-06 14:32:23PSTYesBF, RJUSGS-81405.31 Good NONE
12542017-11-06 14:28:11PSTYesBF, RJUSGS-83105.31 Good NONE
12532017-10-25 10:17:23PSTYesNS/CHUSGS17204.49 Good NONE
12522017-10-25 10:10:15PSTYesNS/CHUSGS11804.52 Good NONE
12512017-10-25 10:01:38PSTYesNS/CHUSGS5444.55 Good NONE
12502017-10-25 09:54:31PSTYesNS/CHUSGS-24.24.57 Good NONE
12492017-10-25 09:48:01PSTYesNS/CHUSGS-4904.59 Good NONE
12482017-10-25 09:42:06PSTYesNS/CHUSGS-8564.61 Good NONE
12472017-08-29 09:23:30PSTYesBS/RJUSGS-57504.88 Unspecified NONE
12462017-08-29 09:19PSTYesBS/RJUSGS-57404.85 Unspecified NONE
12452017-08-29 09:14PSTYesBS/RJUSGS-57304.83 Unspecified NONE
12442017-08-29 09:09:30PSTYesBS/RJUSGS-57904.81 Unspecified NONE
12432017-08-29 09:04:30PSTYesBS/RJUSGS-58204.79 Unspecified NONE
12422017-08-29 08:59:30PSTYesBS/RJUSGS-58604.77 Unspecified NONE
12412017-05-22 11:36:30PSTYesNS/CHUSGS-67204.92 Good NONE
12402017-05-22 11:28:35PSTYesNS/CHUSGS-67704.87 Good NONE
12392017-05-22 11:20:25PSTYesNS/CHUSGS-66304.82 Good NONE
12382017-05-22 11:11:30PSTYesNS/CHUSGS-70004.76 Good NONE
12372017-05-22 11:02:27PSTYesNS/CHUSGS-68404.70 Good NONE
12362017-05-22 10:54:33PSTYesNS/CHUSGS-69004.63 Good NONE
12352017-02-23 12:24:11PSTYesTV,CHUSGS-53107.42 Good NONE
12342017-02-23 12:18:05PSTYesTV,CHUSGS-55607.40 Good NONE
12332017-02-23 12:12:22PSTYesTV,CHUSGS-55507.38 Good NONE
12322017-02-23 12:05:38PSTYesTV,CHUSGS-58307.36 Good NONE
12312017-02-23 11:59:37PSTYesTV,CHUSGS-59707.33 Good NONE
12302017-02-23 11:54:25PSTYesTV,CHUSGS-61507.30 Good NONE
12292017-01-17 10:36:08PSTYestv,nvUSGS77505.68 Good NONE
12282017-01-17 10:31:54PSTYestv,nvUSGS77905.70 Good NONE
12272017-01-17 10:27:18PSTYestv,nvUSGS76405.74 Good NONE
12262017-01-17 10:22:49PSTYestv,nvUSGS72405.77 Good NONE
12252017-01-17 10:18:30PSTYestv,nvUSGS70405.79 Good NONE
12242017-01-17 10:14:12PSTYestv,nvUSGS72005.83 Good NONE
12232017-01-17 10:09:51PSTYestv,nvUSGS70405.86 Good NONE
12222017-01-17 10:05:41PSTYestv,nvUSGS70205.88 Good NONE
12212016-12-21 14:12:28PSTYesRJ,CHUSGS72404.48 Good NONE
12202016-12-21 14:06:42PSTYesRJ,CHUSGS74604.53 Good NONE
12192016-12-21 14:00:31PSTYesRJ,CHUSGS73704.57 Good NONE
12182016-12-21 13:55:06PSTYesRJ,CHUSGS70604.60 Good NONE
12172016-12-21 13:49:56PSTYesRJ,CHUSGS72504.64 Good NONE
12162016-12-21 13:45PSTYesRJ,CHUSGS75704.68 Good NONE
12152016-12-21 13:39:41PSTYesRJ,CHUSGS74004.72 Good NONE
12142016-12-21 13:34:26PSTYesRJ,CHUSGS71804.76 Good NONE
12132016-12-21 13:28:32PSTYesRJ,CHUSGS71704.80 Good NONE
12122016-12-21 13:22:13PSTYesRJ,CHUSGS70304.84 Good NONE
12112016-12-14 14:20:46PSTYesNVB,CHUSGS-93906.20 Good NONE
12102016-12-14 14:13:15PSTYesNVB,CHUSGS-95806.14 Good NONE
12092016-12-14 14:05:28PSTYesNVB,CHUSGS-100006.08 Good NONE
12082016-12-14 13:57:42PSTYesNVB,CHUSGS-96206.01 Good NONE
12072016-12-14 13:49:34PSTYesNVB,CHUSGS-96105.96 Good NONE
12062016-12-14 13:41:59PSTYesNVB,CHUSGS-97505.90 Good NONE
12052016-12-14 13:35:31PSTYesNVB,CHUSGS-95005.84 Good NONE
12042016-12-14 13:30:22PSTYesNVB,CHUSGS-97605.79 Good NONE
12032016-11-01 09:40:51PSTYesCH, RJUSGS50903.80 Good NONE
12022016-11-01 09:34:22PSTYesCH, RJUSGS51303.83 Good NONE
12012016-11-01 09:27:30PSTYesCH, RJUSGS52403.87 Good NONE
12002016-11-01 09:20:35PSTYesCH, RJUSGS53203.91 Good NONE
11992016-11-01 09:12:51PSTYesCH, RJUSGS52203.94 Good NONE
11982016-11-01 09:07:01PSTYesCH, RJUSGS52103.98 Good NONE
11972016-08-23 12:43PSTYesRJ/BG/CUSGS49603.28 Good NONE
11962016-08-23 12:36:43PSTYesRJ/BG/CUSGS49403.32 Good NONE
11952016-08-23 12:31:42PSTYesRJ/BG/CUSGS49603.34 Good NONE
11942016-08-23 12:26:48PSTYesRJ/BG/CUSGS49003.38 Good NONE
11932016-08-23 12:21:39PSTYesRJ/BG/CUSGS50503.42 Good NONE
11922016-08-23 12:16:43PSTYesRJ/BG/CUSGS51203.45 Good NONE
11912016-06-07 11:10:07PSTYesFC,CHUSGS70403.37 Fair NONE
11902016-06-07 11:07:01PSTYesFC,CHUSGS70703.39 Fair NONE
11892016-06-07 11:02:55PSTYesFC,CHUSGS69803.43 Fair NONE
11882016-06-07 10:58:59PSTYesFC,CHUSGS72703.47 Fair NONE
11872016-06-07 10:55:01PSTYesFC,CHUSGS72103.51 Fair NONE
11862016-06-07 10:48:46PSTYesFC,CHUSGS72803.55 Fair NONE
11852016-04-12 10:34:50PSTYesCR, CHUSGS79304.21 Good NONE
11842016-04-12 10:29:09PSTYesCR, CHUSGS78404.26 Good NONE
11832016-04-12 10:23:51PSTYesCR, CHUSGS77104.30 Good NONE
11822016-04-12 10:18:29PSTYesCR, CHUSGS80504.35 Good NONE
11812016-04-12 10:13:02PSTYesCR, CHUSGS77704.40 Good NONE
11802016-04-12 10:08:06PSTYesCR, CHUSGS75804.45 Good NONE
11792016-01-12 14:44:14PSTYesCCH,FCUSGS-83805.02 Fair NONE
11782016-01-12 14:39:17PSTYesCCH,FCUSGS-86104.99 Fair NONE
11772016-01-12 14:34:12PSTYesCCH,FCUSGS-87204.95 Fair NONE
11762016-01-12 14:29:35PSTYesCCH,FCUSGS-86404.91 Fair NONE
11752016-01-12 14:24:11PSTYesCCH,FCUSGS-83904.87 Fair NONE
11742016-01-12 14:19:29PSTYesCCH,FCUSGS-84704.83 Fair NONE
11732015-07-23 12:09:37PSTYesAD,CHUSGS67103.97 Poor NONE
11722015-07-23 12:02:49PSTYesAD,CHUSGS72004.01 Excellent NONE
11712015-07-23 11:55:40PSTYesAD,CHUSGS65504.05 Poor NONE
11702015-07-23 11:48:32PSTYesAD,CHUSGS67704.08 Fair NONE
11692015-07-23 11:40:47PSTYesAD,CHUSGS70004.13 Good NONE
11682015-07-23 11:31:44PSTYesAD,CHUSGS68004.18 Fair NONE
11672015-07-23 11:22:21PSTYesAD,CHUSGS67804.22 Fair NONE
11662015-07-23 11:14:59PSTYesAD,CHUSGS67004.26 Fair NONE
11652015-07-23 11:05:55PSTYesAD,CHUSGS66204.31 Good NONE
11642015-07-23 10:57:03PSTYesAD,CHUSGS65704.36 Excellent NONE
11632015-05-19 16:18:51PSTYesAD,CHUSGS-77104.58 PoorUnspecifedNONE
11622015-05-19 16:13:05PSTYesAD,CHUSGS-75204.55 PoorUnspecifedNONE
11612015-05-19 16:07:03PSTYesAD,CHUSGS-74704.51 PoorUnspecifedNONE
11602015-05-19 16:01:13PSTYesAD,CHUSGS-74304.47 PoorUnspecifedNONE
11592015-05-19 15:53:46PSTYesAD,CHUSGS-75204.42 PoorUnspecifedNONE
11582015-05-19 15:46:38PSTYesAD,CHUSGS-76704.39 PoorUnspecifedNONE
11572015-04-02 11:57PSTYesAD/CHAUSGS-65303.70 UnspecifiedUnspecifedNONE
11562015-04-02 11:50PSTYesAD/CHAUSGS-67203.64 UnspecifiedUnspecifedNONE
11552015-04-02 11:42PSTYesAD/CHAUSGS-62903.57 UnspecifiedUnspecifedNONE
11542015-04-02 11:36PSTYesAD/CHAUSGS-61103.50 UnspecifiedUnspecifedNONE
11532015-04-02 11:28PSTYesAD/CHAUSGS-59003.43 UnspecifiedUnspecifedNONE
11522015-04-02 11:23PSTYesAD/CHAUSGS-58203.36 UnspecifiedUnspecifedNONE
11512015-04-02 11:16PSTYesAD/CHAUSGS-54003.28 UnspecifiedUnspecifedNONE
11502015-04-02 11:11PSTYesAD/CHAUSGS-49803.21 UnspecifiedUnspecifedNONE
11492015-03-05 16:08PSTYesND/CHUSGS-4380 UnspecifiedDebrisLightNONE
11482015-03-05 15:57PSTYesND/CHUSGS-4870 UnspecifiedDebrisLightNONE
11472015-03-05 15:51PSTYesND/CHUSGS-5130 UnspecifiedDebrisLightNONE
11462015-03-05 15:41PSTYesND/CHUSGS-5600 UnspecifiedDebrisLightNONE
11452015-03-05 15:32PSTYesND/CHUSGS-6290 UnspecifiedDebrisLightNONE
11442015-03-05 15:21PSTYesND/CHUSGS-6300 UnspecifiedDebrisLightNONE
11432015-03-05 15:14PSTYesND/CHUSGS-6710 UnspecifiedDebrisLightNONE
11422015-03-05 15:04PSTYesND/CHUSGS-6970 UnspecifiedDebrisLightNONE
11412015-03-05 14:56PSTYesND/CHUSGS-7290 UnspecifiedDebrisLightNONE
11402015-03-05 14:47PSTYesND/CHUSGS-7180 UnspecifiedDebrisLightNONE
11392015-03-05 14:40PSTYesND/CHUSGS-7540 UnspecifiedDebrisLightNONE
11382015-03-05 14:31PSTYesND/CHUSGS-7660 UnspecifiedDebrisLightNONE
11372015-03-05 14:19PSTYesND/CHUSGS-7700 UnspecifiedDebrisLightNONE
11362015-03-05 14:03PSTYesND/CHUSGS-7510 UnspecifiedDebrisLightNONE
11352015-03-05 13:54PSTYesND/CHUSGS-7390 UnspecifiedDebrisLightNONE
11342015-03-05 13:42PSTYesND/CHUSGS-7420 UnspecifiedDebrisLightNONE
11332015-03-05 13:34PSTYesND/CHUSGS-7470 UnspecifiedDebrisLightNONE
11322015-03-05 13:25PSTYesND/CHUSGS-7290 UnspecifiedDebrisLightNONE
11312015-03-05 13:17PSTYesND/CHUSGS-7530 UnspecifiedDebrisLightNONE
11302015-03-05 13:07PSTYesND/CHUSGS-7560 UnspecifiedDebrisLightNONE
11292015-03-05 12:58PSTYesND/CHUSGS-7650 UnspecifiedDebrisLightNONE
11282015-03-05 12:48PSTYesND/CHUSGS-7640 UnspecifiedDebrisLightNONE
11272015-03-05 12:37PSTYesND/CHUSGS-7520 UnspecifiedDebrisLightNONE
11262015-03-05 12:28PSTYesND/CHUSGS-7420 UnspecifiedDebrisLightNONE
11252015-03-05 12:18PSTYesND/CHUSGS-7100 UnspecifiedDebrisLightNONE
11242015-03-05 12:10PSTYesND/CHUSGS-6840 UnspecifiedDebrisLightNONE
11232015-03-05 12:00PSTYesND/CHUSGS-6510 UnspecifiedDebrisLightNONE
11222015-03-05 11:43PSTYesND/CHUSGS-5350 UnspecifiedDebrisLightNONE
11212015-03-05 11:36PSTYesND/CHUSGS-4280 UnspecifiedDebrisLightNONE
11202015-03-05 11:26PSTYesND/CHUSGS-3500 PoorDebrisLightNONE
11192015-03-05 11:16PSTYesND/CHUSGS-1850 PoorDebrisLightNONE
11182015-03-05 11:05PSTYesND/CHUSGS-258 PoorDebrisLightNONE
11172015-03-05 10:56PSTYesND/CHUSGS913 PoorDebrisLightNONE
11162015-03-05 10:38PSTYesND/CHUSGS2700 PoorDebrisLightNONE
11152015-03-05 10:27PSTYesND/CHUSGS3450 PoorDebrisLightNONE
11142015-03-05 10:16PSTYesND/CHUSGS4020 PoorDebrisLightNONE
11132015-03-05 10:05PSTYesND/CHUSGS4390 PoorDebrisLightNONE
11122015-03-05 09:54PSTYesND/CHUSGS4710 PoorDebrisLightNONE
11112014-11-12 13:06PSTYesKM/DAUSGS5010 Unspecified NONE
11102014-11-12 12:53PSTYesKM/DAUSGS5010 Unspecified NONE
11092014-11-12 12:44PSTYesKM/DAUSGS5050 Unspecified NONE
11082014-11-12 12:34PSTYesKM/DAUSGS5200 Unspecified NONE
11072014-11-12 12:25PSTYesKM/DAUSGS5420 Unspecified NONE
11062014-11-12 12:14PSTYesKM/DAUSGS5280 Unspecified NONE
11052014-11-12 12:01PSTYesKM/DAUSGS5350 Unspecified NONE
11042014-11-12 11:46PSTYesKM/DAUSGS5750 Unspecified NONE
11032014-11-12 11:34PSTYesKM/DAUSGS5520 Unspecified NONE
11022014-11-12 11:22PSTYesKM/DAUSGS5490 Unspecified NONE
11012014-08-12 12:41PSTYesKM/CHUSGS1610 Unspecified NONE
11002014-08-12 12:36PSTYesKM/CHUSGS2200 Unspecified NONE
10992014-08-12 12:29PSTYesKM/CHUSGS2640 Unspecified NONE
10982014-08-12 12:25PSTYesKM/CHUSGS3010 Unspecified NONE
10972014-08-12 12:17PSTYesKM/CHUSGS3600 Unspecified NONE
10962014-08-12 12:12PSTYesKM/CHUSGS3820 Unspecified NONE
10952014-08-12 12:02PSTYesKM/CHUSGS4240 Unspecified NONE
10942014-08-12 11:58PSTYesKM/CHUSGS4490 Unspecified NONE
10932014-08-12 11:49PSTYesKM/CHUSGS4660 Unspecified NONE
10922014-08-12 11:43PSTYesKM/CHUSGS4710 Unspecified NONE
10912014-08-12 11:32PSTYesKM/CHUSGS4990 Unspecified NONE
10902014-08-12 11:28PSTYesKM/CHUSGS5260 Unspecified NONE
10892014-08-12 11:20PSTYesKM/CHUSGS5230 Unspecified NONE
10882014-08-12 11:16PSTYesKM/CHUSGS5270 Unspecified NONE
10872014-08-12 11:10PSTYesKM/CHUSGS5470 Unspecified NONE
10862014-08-12 11:00PSTYesKM/CHUSGS5590 Unspecified NONE
10852014-08-12 10:52PSTYesKM/CHUSGS5520 Unspecified NONE
10842014-08-12 10:49PSTYesKM/CHUSGS5630 Unspecified NONE
10832014-08-12 10:40PSTYesKM/CHUSGS5830 Unspecified NONE
10822014-08-12 10:37PSTYesKM/CHUSGS5910 Unspecified NONE
10812014-08-12 10:29PSTYesKM/CHUSGS5840 Unspecified NONE
10802014-08-12 10:25PSTYesKM/CHUSGS6100 Unspecified NONE
10792014-08-12 10:18PSTYesKM/CHUSGS6210 Unspecified NONE
10782014-08-12 10:14PSTYesKM/CHUSGS6110 Unspecified NONE
10772014-08-12 10:07PSTYesKM/CHUSGS6190 Unspecified NONE
10762014-08-12 09:46PSTYesKM/CHUSGS6510 Unspecified NONE
10752014-08-12 09:38PSTYesKM/CHUSGS6430 Unspecified NONE
10742014-08-12 09:35PSTYesKM/CHUSGS6470 Unspecified NONE
10732014-08-12 09:27PSTYesKM/CHUSGS6650 Unspecified NONE
10722014-08-12 09:24PSTYesKM/CHUSGS6740 Unspecified NONE
10712014-08-12 09:15PSTYesKM/CHUSGS6740 Unspecified NONE
10702014-08-12 09:12PSTYesKM/CHUSGS6730 Unspecified NONE
10692014-08-12 09:05PSTYesKM/CHUSGS6900 Unspecified NONE
10682014-08-12 09:01PSTYesKM/CHUSGS6770 Unspecified NONE
10672014-08-12 08:53PSTYesKM/CHUSGS6920 Unspecified NONE
10662014-08-12 08:49PSTYesKM/CHUSGS6780 Unspecified NONE
10652014-08-12 08:43PSTYesKM/CHUSGS6990 Unspecified NONE
10642014-08-12 08:37PSTYesKM/CHUSGS6960 Unspecified NONE
10632014-07-22 14:14PSTYesYESUSGS-4140 Unspecified NONE
10622014-07-22 14:03PSTYesYESUSGS-4490 Unspecified NONE
10612014-07-22 13:53PSTYesYESUSGS-4620 Unspecified NONE
10602014-07-22 13:45PSTYesYESUSGS-4850 Unspecified NONE
10592014-07-22 13:22PSTYesYESUSGS-5560 Unspecified NONE
10582014-07-22 13:12PSTYesYESUSGS-5510 Unspecified NONE
10572014-07-22 12:52PSTYesYESUSGS-5980 Unspecified NONE
10562014-07-22 12:46PSTYesYESUSGS-5960 Unspecified NONE
10552014-07-22 12:31PSTYesYESUSGS-6050 Unspecified NONE
10542014-07-22 12:22PSTYesYESUSGS-6260 Unspecified NONE
10532014-07-02 14:32PSTYesYESUSGS1700 Unspecified NONE
10522014-07-02 14:28PSTYesYESUSGS2050 Unspecified NONE
10512014-07-02 14:23PSTYesYESUSGS2410 Unspecified NONE
10502014-07-02 14:20PSTYesYESUSGS2660 Unspecified NONE
10492014-07-02 14:15PSTYesYESUSGS3070 Unspecified NONE
10482014-07-02 14:12PSTYesYESUSGS3260 Unspecified NONE
10472014-07-02 14:07PSTYesYESUSGS3610 Unspecified NONE
10462014-07-02 14:02PSTYesYESUSGS3700 Unspecified NONE
10452012-03-19 16:40PSTYesunkUSGS77804.11 UnspecifiedUnspecifedNONE
10442012-03-19 16:35PSTYesunkUSGS79004.23 UnspecifiedUnspecifedNONE
10432012-03-19 16:30PSTYesunkUSGS78404.23 UnspecifiedUnspecifedNONE
10422012-03-19 16:24PSTYesunkUSGS78204.23 UnspecifiedUnspecifedNONE
10412012-03-19 16:19PSTYesunkUSGS78704.37 UnspecifiedUnspecifedNONE
10402012-03-19 16:13PSTYesunkUSGS79704.37 UnspecifiedUnspecifedNONE
10392012-03-19 16:08PSTYesunkUSGS77404.51 UnspecifiedUnspecifedNONE
10382012-03-19 15:59PSTYesunkUSGS79204.51 UnspecifiedUnspecifedNONE
10372012-03-19 15:48PSTYesunkUSGS75804.66 UnspecifiedUnspecifedNONE
10362011-04-05 13:15PSTYesunkUSGS18403.64 UnspecifiedUnspecifedNONE
10352011-04-05 13:05PSTYesunkUSGS27503.53 UnspecifiedUnspecifedNONE
10342011-04-05 12:56PSTYesunkUSGS35203.53 UnspecifiedUnspecifedNONE
10332011-04-05 12:50PSTYesunkUSGS39403.48 UnspecifiedUnspecifedNONE
10322010-08-19 11:37PSTYesunkUSGS-60703.93 UnspecifiedUnspecifedNONE
10312010-08-19 11:33PSTYesunkUSGS-59703.93 UnspecifiedUnspecifedNONE
10302010-08-19 11:27PSTYesunkUSGS-61803.93 UnspecifiedUnspecifedNONE
10292010-08-19 11:22PSTYesunkUSGS-59903.93 UnspecifiedUnspecifedNONE
10282010-08-19 11:15PSTYesunkUSGS-60203.84 UnspecifiedUnspecifedNONE
10272010-08-19 11:10PSTYesunkUSGS-64603.84 UnspecifiedUnspecifedNONE
10262010-08-19 11:03PSTYesunkUSGS-61103.75 UnspecifiedUnspecifedNONE
10252010-03-24 16:40PSTYesBJS/CBUSGS58402.10 UnspecifiedUnspecifedNONE
10242010-03-24 16:37PSTYesBJS/CBUSGS58502.17 UnspecifiedUnspecifedNONE
10232010-03-24 16:33PSTYesBJS/CBUSGS61702.17 UnspecifiedUnspecifedNONE
10222010-03-24 16:30PSTYesBJS/CBUSGS61602.17 UnspecifiedUnspecifedNONE
10212010-03-24 16:26PSTYesBJS/CBUSGS63302.17 UnspecifiedUnspecifedNONE
10202010-03-24 16:22PSTYesBJS/CBUSGS64202.27 UnspecifiedUnspecifedNONE
10192010-03-24 16:02PSTYesBJS/CBUSGS67502.39 UnspecifiedUnspecifedNONE
10182010-03-24 15:57PSTYesBJS/CBUSGS67602.39 UnspecifiedUnspecifedNONE
10172010-03-24 15:49PSTYesBJS/CBUSGS68102.52 UnspecifiedUnspecifedNONE
10162010-03-24 15:46PSTYesBJS/CBUSGS69002.52 UnspecifiedUnspecifedNONE
10152010-03-24 15:10PSTYesBJS/CBUSGS72702.76 UnspecifiedUnspecifedNONE
10142010-03-24 15:06PSTYesBJS/CBUSGS71802.87 UnspecifiedUnspecifedNONE
10132010-03-24 14:36PSTYesBJS/CBUSGS75003.12 UnspecifiedUnspecifedNONE
10122010-03-24 14:31PSTYesBJS/CBUSGS79103.12 UnspecifiedUnspecifedNONE
10112010-03-24 14:09PSTYesBJS/CBUSGS78403.25 UnspecifiedUnspecifedNONE
10102010-03-24 14:05PSTYesBJS/CBUSGS77503.39 UnspecifiedUnspecifedNONE
10092010-03-24 13:59PSTYesBJS/CBUSGS78503.39 UnspecifiedUnspecifedNONE
10082010-03-24 13:56PSTYesBJS/CBUSGS79203.39 UnspecifiedUnspecifedNONE
10072010-03-24 13:32PSTYesBJS/CBUSGS81603.64 UnspecifiedUnspecifedNONE
10062010-03-24 13:27PSTYesBJS/CBUSGS78803.64 UnspecifiedUnspecifedNONE
10052010-03-24 13:15PSTYesBJS/CBUSGS78803.76 UnspecifiedUnspecifedNONE
10042010-03-24 13:10PSTYesBJS/CBUSGS81403.76 UnspecifiedUnspecifedNONE
10032010-03-24 13:05PSTYesBJS/CBUSGS83403.87 UnspecifiedUnspecifedNONE
10022010-03-24 13:01PSTYesBJS/CBUSGS79303.87 UnspecifiedUnspecifedNONE
10012010-03-24 12:27PSTYesBJS/CBUSGS77704.14 UnspecifiedUnspecifedNONE
10002010-03-24 12:22PSTYesBJS/CBUSGS77904.27 UnspecifiedUnspecifedNONE
9992010-03-24 12:17PSTYesBJS/CBUSGS78604.27 UnspecifiedUnspecifedNONE
9982010-03-24 12:12PSTYesBJS/CBUSGS76104.27 UnspecifiedUnspecifedNONE
9972010-03-24 11:40PSTYesBJS/CBUSGS66304.54 UnspecifiedUnspecifedNONE
9962010-03-24 11:35PSTYesBJS/CBUSGS65904.67 UnspecifiedUnspecifedNONE
9952010-03-24 11:29PSTYesBJS/CBUSGS60404.67 UnspecifiedUnspecifedNONE
9942010-03-24 11:24PSTYesBJS/CBUSGS57104.67 UnspecifiedUnspecifedNONE
9932010-03-24 11:19PSTYesBJS/CBUSGS52204.80 UnspecifiedUnspecifedNONE
9922010-03-24 11:14PSTYesBJS/CBUSGS46304.80 UnspecifiedUnspecifedNONE
9912010-03-24 11:09PSTYesBJS/CBUSGS42004.92 UnspecifiedUnspecifedNONE
9902010-03-24 11:04PSTYesBJS/CBUSGS34604.92 UnspecifiedUnspecifedNONE
9892010-03-24 10:58PSTYesBJS/CBUSGS28004.92 UnspecifiedUnspecifedNONE
9882010-03-24 10:53PSTYesBJS/CBUSGS20204.92 UnspecifiedUnspecifedNONE
9872010-03-24 10:49PSTYesBJS/CBUSGS14205.01 UnspecifiedUnspecifedNONE
9862010-03-24 10:44PSTYesBJS/CBUSGS7785.01 UnspecifiedUnspecifedNONE
9852010-03-24 10:40PSTYesBJS/CBUSGS2775.01 UnspecifiedUnspecifedNONE
9842010-03-24 10:29PSTYesBJS/CBUSGS-9825.07 UnspecifiedUnspecifedNONE
9832010-03-24 10:24PSTYesBJS/CBUSGS-13605.07 UnspecifiedUnspecifedNONE
9822010-03-24 10:18PSTYesBJS/CBUSGS-19005.11 UnspecifiedUnspecifedNONE
9812010-03-24 10:14PSTYesBJS/CBUSGS-23005.11 UnspecifiedUnspecifedNONE
9802010-03-24 10:09PSTYesBJS/CBUSGS-26805.11 UnspecifiedUnspecifedNONE
9792010-03-24 10:03PSTYesBJS/CBUSGS-30505.11 UnspecifiedUnspecifedNONE
9782010-03-24 09:57PSTYesBJS/CBUSGS-34905.11 UnspecifiedUnspecifedNONE
9772010-03-24 09:52PSTYesBJS/CBUSGS-36905.11 UnspecifiedUnspecifedNONE
9762010-03-24 09:46PSTYesBJS/CBUSGS-39105.11 UnspecifiedUnspecifedNONE
9752010-03-24 09:41PSTYesBJS/CBUSGS-43605.11 UnspecifiedUnspecifedNONE
9742010-03-24 09:36PSTYesBJS/CBUSGS-44305.08 UnspecifiedUnspecifedNONE
9732010-03-24 09:29PSTYesBJS/CBUSGS-49305.08 UnspecifiedUnspecifedNONE
9722010-03-24 09:24PSTYesBJS/CBUSGS-50005.08 UnspecifiedUnspecifedNONE
9712010-03-24 09:19PSTYesBJS/CBUSGS-53205.04 UnspecifiedUnspecifedNONE
9702010-03-24 09:13PSTYesBJS/CBUSGS-52905.04 UnspecifiedUnspecifedNONE
9692010-03-24 09:08PSTYesBJS/CBUSGS-55005.04 UnspecifiedUnspecifedNONE
9682010-03-24 09:03PSTYesBJS/CBUSGS-57005.00 UnspecifiedUnspecifedNONE
9672010-03-24 08:59PSTYesBJS/CBUSGS-59305.00 UnspecifiedUnspecifedNONE
9662010-03-24 08:53PSTYesBJS/CBUSGS-59605.00 UnspecifiedUnspecifedNONE
9652010-03-24 08:31PSTYesBJS/CBUSGS-63604.85 UnspecifiedUnspecifedNONE
9642010-03-24 08:24PSTYesBJS/CBUSGS-63504.78 UnspecifiedUnspecifedNONE
9632010-03-24 08:18PSTYesBJS/CBUSGS-65304.78 UnspecifiedUnspecifedNONE
9622010-03-24 08:09PSTYesBJS/CBUSGS-65104.71 UnspecifiedUnspecifedNONE
9612010-03-09 16:30:40PSTYeshydroUSGS62802.60 UnspecifiedUnspecifedNONE
9602010-03-09 16:27:17PSTYeshydroUSGS60502.60 UnspecifiedUnspecifedNONE
9592010-03-09 16:23:33PSTYeshydroUSGS61902.60 UnspecifiedUnspecifedNONE
9582010-03-09 16:19:38PSTYeshydroUSGS62202.69 UnspecifiedUnspecifedNONE
9572010-03-09 16:00:23PSTYeshydroUSGS69602.80 UnspecifiedUnspecifedNONE
9562010-03-09 15:54:48PSTYeshydroUSGS67802.80 UnspecifiedUnspecifedNONE
9552010-03-09 15:36:31PSTYeshydroUSGS68003.09 UnspecifiedUnspecifedNONE
9542010-03-09 15:31:30PSTYeshydroUSGS69303.09 UnspecifiedUnspecifedNONE
9532010-03-09 15:14:21PSTYeshydroUSGS68603.20 UnspecifiedUnspecifedNONE
9522010-03-09 15:09:59PSTYeshydroUSGS68003.33 UnspecifiedUnspecifedNONE
9512010-03-09 14:52:38PSTYeshydroUSGS69103.33 UnspecifiedUnspecifedNONE
9502010-03-09 14:46:36PSTYeshydroUSGS68203.43 UnspecifiedUnspecifedNONE
9492010-03-09 14:32:02PSTYeshydroUSGS68403.54 UnspecifiedUnspecifedNONE
9482010-03-09 14:27:09PSTYeshydroUSGS68403.54 UnspecifiedUnspecifedNONE
9472010-03-09 14:08:20PSTYeshydroUSGS69203.75 UnspecifiedUnspecifedNONE
9462010-03-09 14:03:37PSTYeshydroUSGS68003.75 UnspecifiedUnspecifedNONE
9452010-03-09 13:42:14PSTYeshydroUSGS66403.87 UnspecifiedUnspecifedNONE
9442010-03-09 13:37:39PSTYeshydroUSGS68303.99 UnspecifiedUnspecifedNONE
9432010-03-09 13:22:03PSTYeshydroUSGS64603.99 UnspecifiedUnspecifedNONE
9422010-03-09 13:18:01PSTYeshydroUSGS66704.10 UnspecifiedUnspecifedNONE
9412010-03-09 12:58:31PSTYeshydroUSGS60304.19 UnspecifiedUnspecifedNONE
9402010-03-09 12:52:32PSTYeshydroUSGS60704.19 UnspecifiedUnspecifedNONE
9392010-03-09 12:45:03PSTYeshydroUSGS58704.36 UnspecifiedUnspecifedNONE
9382010-03-09 12:39:17PSTYeshydroUSGS53304.46 UnspecifiedUnspecifedNONE
9372010-03-09 12:33:55PSTYeshydroUSGS50204.46 UnspecifiedUnspecifedNONE
9362010-03-09 12:29:37PSTYeshydroUSGS44604.46 UnspecifiedUnspecifedNONE
9352010-03-09 12:25:36PSTYeshydroUSGS42004.46 UnspecifiedUnspecifedNONE
9342010-03-09 12:21:33PSTYeshydroUSGS36604.57 UnspecifiedUnspecifedNONE
9332010-03-09 12:17:51PSTYeshydroUSGS35204.57 UnspecifiedUnspecifedNONE
9322010-03-09 12:13:44PSTYeshydroUSGS29804.57 UnspecifiedUnspecifedNONE
9312010-03-09 11:52:04PSTYeshydroUSGS2514.65 UnspecifiedUnspecifedNONE
9302010-03-09 11:47:39PSTYeshydroUSGS-95.04.72 UnspecifiedUnspecifedNONE
9292010-03-09 11:33:58PSTYeshydroUSGS-16104.74 UnspecifiedUnspecifedNONE
9282010-03-09 11:28:12PSTYeshydroUSGS-19604.74 UnspecifiedUnspecifedNONE
9272010-03-09 11:13:45PSTYeshydroUSGS-30104.78 UnspecifiedUnspecifedNONE
9262010-03-09 11:09:24PSTYeshydroUSGS-33304.76 UnspecifiedUnspecifedNONE
9252010-03-09 10:41:28PSTYeshydroUSGS-44104.75 UnspecifiedUnspecifedNONE
9242010-03-09 10:37:04PSTYeshydroUSGS-47204.71 UnspecifiedUnspecifedNONE
9232010-01-14 16:11PSTYesBJS/CBUSGS37105.51 UnspecifiedUnspecifedNONE
9222010-01-14 16:07PSTYesBJS/CBUSGS30205.57 UnspecifiedUnspecifedNONE
9212010-01-14 16:03PSTYesBJS/CBUSGS23105.57 UnspecifiedUnspecifedNONE
9202010-01-14 15:59PSTYesBJS/CBUSGS15905.62 UnspecifiedUnspecifedNONE
9192010-01-14 15:56PSTYesBJS/CBUSGS10205.68 UnspecifiedUnspecifedNONE
9182010-01-14 15:51PSTYesBJS/CBUSGS84.45.72 UnspecifiedUnspecifedNONE
9172010-01-14 15:38PSTYesBJS/CBUSGS-15905.79 UnspecifiedUnspecifedNONE
9162010-01-14 15:35PSTYesBJS/CBUSGS-21705.81 UnspecifiedUnspecifedNONE
9152010-01-14 15:16PSTYesBJS/CBUSGS-41205.89 UnspecifiedUnspecifedNONE
9142010-01-14 15:08PSTYesBJS/CBUSGS-48905.90 UnspecifiedUnspecifedNONE
9132010-01-14 15:03PSTYesBJS/CBUSGS-52105.89 UnspecifiedUnspecifedNONE
9122010-01-14 14:59PSTYesBJS/CBUSGS-52805.91 UnspecifiedUnspecifedNONE
9112010-01-14 14:54PSTYesBJS/CBUSGS-56105.90 UnspecifiedUnspecifedNONE
9102010-01-14 14:50PSTYesBJS/CBUSGS-57005.89 UnspecifiedUnspecifedNONE
9092010-01-14 14:45PSTYesBJS/CBUSGS-62505.88 UnspecifiedUnspecifedNONE
9082010-01-14 14:10PSTYesBJS/CBUSGS-76305.79 UnspecifiedUnspecifedNONE
9072010-01-14 14:04PSTYesBJS/CBUSGS-78105.77 UnspecifiedUnspecifedNONE
9062010-01-14 13:58PSTYesBJS/CBUSGS-78005.75 UnspecifiedUnspecifedNONE
9052010-01-14 13:52PSTYesBJS/CBUSGS-80005.70 UnspecifiedUnspecifedNONE
9042010-01-14 13:08PSTYesBJS/CBUSGS-87005.45 UnspecifiedUnspecifedNONE
9032010-01-14 13:03PSTYesBJS/CBUSGS-86305.38 UnspecifiedUnspecifedNONE
9022010-01-14 12:57PSTYesBJS/CBUSGS-88805.38 UnspecifiedUnspecifedNONE
9012010-01-14 12:18PSTYesBJS/CBUSGS-87405.07 UnspecifiedUnspecifedNONE
9002010-01-14 12:13PSTYesBJS/CBUSGS-85905.07 UnspecifiedUnspecifedNONE
8992010-01-14 12:06PSTYesBJS/CBUSGS-88405.00 UnspecifiedUnspecifedNONE
8982010-01-14 12:01PSTYesBJS/CBUSGS-87504.96 UnspecifiedUnspecifedNONE
8972010-01-14 11:56PSTYesBJS/CBUSGS-85904.92 UnspecifiedUnspecifedNONE
8962010-01-14 11:51PSTYesBJS/CBUSGS-84204.88 UnspecifiedUnspecifedNONE
8952010-01-14 11:45PSTYesBJS/CBUSGS-82504.83 UnspecifiedUnspecifedNONE
8942010-01-14 11:41PSTYesBJS/CBUSGS-82904.79 UnspecifiedUnspecifedNONE
8932010-01-14 11:07PSTYesBJS/CBUSGS-73704.48 UnspecifiedUnspecifedNONE
8922010-01-14 11:02PSTYesBJS/CBUSGS-71604.44 UnspecifiedUnspecifedNONE
8912010-01-14 10:56PSTYesBJS/CBUSGS-71304.41 UnspecifiedUnspecifedNONE
8902010-01-14 10:51PSTYesBJS/CBUSGS-68604.35 UnspecifiedUnspecifedNONE
8892010-01-14 10:45PSTYesBJS/CBUSGS-66404.31 UnspecifiedUnspecifedNONE
8882010-01-14 10:40PSTYesBJS/CBUSGS-62504.27 UnspecifiedUnspecifedNONE
8872010-01-14 10:33PSTYesBJS/CBUSGS-58704.22 UnspecifiedUnspecifedNONE
8862010-01-14 10:29PSTYesBJS/CBUSGS-53204.19 UnspecifiedUnspecifedNONE
8852010-01-14 10:08PSTYesBJS/CBUSGS-27103.97 UnspecifiedUnspecifedNONE
8842010-01-14 10:05PSTYesBJS/CBUSGS-19603.93 UnspecifiedUnspecifedNONE
8832010-01-14 10:00PSTYesBJS/CBUSGS-13403.88 UnspecifiedUnspecifedNONE
8822010-01-14 09:57PSTYesBJS/CBUSGS-7203.85 UnspecifiedUnspecifedNONE
8812010-01-14 09:52PSTYesBJS/CBUSGS-56.03.79 UnspecifiedUnspecifedNONE
8802010-01-14 09:49PSTYesBJS/CBUSGS3893.79 UnspecifiedUnspecifedNONE
8792010-01-14 09:44PSTYesBJS/CBUSGS9113.75 UnspecifiedUnspecifedNONE
8782010-01-14 09:41PSTYesBJS/CBUSGS14403.71 UnspecifiedUnspecifedNONE
8772010-01-14 09:37PSTYesBJS/CBUSGS18603.67 UnspecifiedUnspecifedNONE
8762010-01-14 09:33PSTYesBJS/CBUSGS22203.64 UnspecifiedUnspecifedNONE
8752010-01-14 09:29PSTYesBJS/CBUSGS26003.64 UnspecifiedUnspecifedNONE
8742010-01-14 09:25PSTYesBJS/CBUSGS29803.63 UnspecifiedUnspecifedNONE
8732010-01-14 09:21PSTYesBJS/CBUSGS32803.60 UnspecifiedUnspecifedNONE
8722010-01-14 09:17PSTYesBJS/CBUSGS35503.60 UnspecifiedUnspecifedNONE
8712010-01-14 09:12PSTYesBJS/CBUSGS37403.60 UnspecifiedUnspecifedNONE
8702010-01-14 09:08PSTYesBJS/CBUSGS40603.58 UnspecifiedUnspecifedNONE
8692010-01-14 08:50PSTYesBJS/CBUSGS46903.59 UnspecifiedUnspecifedNONE
8682010-01-14 08:46PSTYesBJS/CBUSGS50303.59 UnspecifiedUnspecifedNONE
8672009-11-03 16:59PSTYesunkUSGS50305.46 UnspecifiedDebrisLightNONE
8662009-11-03 16:54PSTYesunkUSGS42805.46 UnspecifiedDebrisLightNONE
8652009-11-03 16:49PSTYesunkUSGS36305.46 UnspecifiedDebrisLightNONE
8642009-11-03 16:43PSTYesunkUSGS26905.62 UnspecifiedDebrisLightNONE
8632009-11-03 16:39PSTYesunkUSGS18705.62 UnspecifiedDebrisLightNONE
8622009-11-03 16:35PSTYesunkUSGS11405.62 UnspecifiedDebrisLightNONE
8612009-11-03 16:30PSTYesunkUSGS4225.75 UnspecifiedDebrisLightNONE
8602009-11-03 16:25PSTYesunkUSGS-3215.75 UnspecifiedDebrisLightNONE
8592009-11-03 16:20PSTYesunkUSGS-10705.75 UnspecifiedDebrisLightNONE
8582009-11-03 16:14PSTYesunkUSGS-17805.83 UnspecifiedDebrisLightNONE
8572009-11-03 16:09PSTYesunkUSGS-24405.83 UnspecifiedDebrisLightNONE
8562009-11-03 16:01PSTYesunkUSGS-33805.89 UnspecifiedDebrisLightNONE
8552009-11-03 15:56PSTYesunkUSGS-38205.89 UnspecifiedDebrisLightNONE
8542009-11-03 15:50PSTYesunkUSGS-44205.89 UnspecifiedDebrisLightNONE
8532009-11-03 15:45PSTYesunkUSGS-46705.90 UnspecifiedDebrisLightNONE
8522009-11-03 15:40PSTYesunkUSGS-49405.90 UnspecifiedDebrisLightNONE
8512009-11-03 15:34PSTYesunkUSGS-56005.89 UnspecifiedDebrisLightNONE
8502009-11-03 15:31PSTYesunkUSGS-55605.89 UnspecifiedDebrisLightNONE
8492009-11-03 15:03PSTYesunkUSGS-70305.86 UnspecifiedDebrisLightNONE
8482009-11-03 14:58PSTYesunkUSGS-72405.80 UnspecifiedDebrisLightNONE
8472009-11-03 14:52PSTYesunkUSGS-74105.80 UnspecifiedDebrisLightNONE
8462009-11-03 14:46PSTYesunkUSGS-74405.73 UnspecifiedDebrisLightNONE
8452009-11-03 14:22PSTYesunkUSGS-78705.67 UnspecifiedDebrisLightNONE
8442009-11-03 14:17PSTYesunkUSGS-80005.58 UnspecifiedDebrisLightNONE
8432009-11-03 14:12PSTYesunkUSGS-83505.58 UnspecifiedDebrisLightNONE
8422009-11-03 14:07PSTYesunkUSGS-80805.58 UnspecifiedDebrisLightNONE
8412009-11-03 13:41PSTYesunkUSGS-84805.34 UnspecifiedDebrisLightNONE
8402009-11-03 13:35PSTYesunkUSGS-86205.34 UnspecifiedDebrisLightNONE
8392009-11-03 13:30PSTYesunkUSGS-85405.24 UnspecifiedDebrisLightNONE
8382009-11-03 13:24PSTYesunkUSGS-84405.24 UnspecifiedDebrisLightNONE
8372009-11-03 13:02PSTYesunkUSGS-82305.02 UnspecifiedDebrisLightNONE
8362009-11-03 12:56PSTYesunkUSGS-83905.02 UnspecifiedDebrisLightNONE
8352009-11-03 12:51PSTYesunkUSGS-85005.02 UnspecifiedDebrisLightNONE
8342009-11-03 12:46PSTYesunkUSGS-82204.91 UnspecifiedDebrisLightNONE
8332009-11-03 12:40PSTYesunkUSGS-84904.91 UnspecifiedDebrisLightNONE
8322009-11-03 12:35PSTYesunkUSGS-83704.79 UnspecifiedDebrisLightNONE
8312009-11-03 12:08PSTYesunkUSGS-80604.66 UnspecifiedDebrisLightNONE
8302009-11-03 12:04PSTYesunkUSGS-76904.52 UnspecifiedDebrisLightNONE
8292009-11-03 11:59PSTYesunkUSGS-77204.52 UnspecifiedDebrisLightNONE
8282009-11-03 11:54PSTYesunkUSGS-79004.52 UnspecifiedDebrisLightNONE
8272009-11-03 11:49PSTYesunkUSGS-75004.52 UnspecifiedDebrisLightNONE
8262009-11-03 11:44PSTYesunkUSGS-76204.38 UnspecifiedDebrisLightNONE
8252009-11-03 11:35PSTYesunkUSGS-72504.24 UnspecifiedDebrisLightNONE
8242009-11-03 11:29PSTYesunkUSGS-71404.24 UnspecifiedDebrisLightNONE
8232009-11-03 11:22PSTYesunkUSGS-69604.24 UnspecifiedDebrisLightNONE
8222009-11-03 11:15PSTYesunkUSGS-68604.10 UnspecifiedDebrisLightNONE
8212009-11-03 11:07PSTYesunkUSGS-62004.10 UnspecifiedDebrisLightNONE
8202009-11-03 11:01PSTYesunkUSGS-56603.94 UnspecifiedDebrisLightNONE
8192009-11-03 10:54PSTYesunkUSGS-52603.94 UnspecifiedDebrisLightNONE
8182009-11-03 10:47PSTYesunkUSGS-43703.77 UnspecifiedDebrisLightNONE
8172009-11-03 10:40PSTYesunkUSGS-35503.77 UnspecifiedDebrisLightNONE
8162009-11-03 10:32PSTYesunkUSGS-23203.59 UnspecifiedDebrisLightNONE
8152009-11-03 10:27PSTYesunkUSGS-14803.59 UnspecifiedDebrisLightNONE
8142009-11-03 10:22PSTYesunkUSGS-5983.59 UnspecifiedDebrisLightNONE
8132009-11-03 10:16PSTYesunkUSGS1883.45 UnspecifiedDebrisLightNONE
8122009-11-03 10:11PSTYesunkUSGS8993.45 UnspecifiedDebrisLightNONE
8112009-11-03 10:06PSTYesunkUSGS14003.32 UnspecifiedDebrisLightNONE
8102009-11-03 10:00PSTYesunkUSGS19403.32 UnspecifiedDebrisLightNONE
8092009-11-03 09:55PSTYesunkUSGS23603.32 UnspecifiedDebrisLightNONE
8082009-11-03 09:47PSTYesunkUSGS30403.26 UnspecifiedDebrisLightNONE
8072009-11-03 09:41PSTYesunkUSGS34703.26 UnspecifiedDebrisLightNONE
8062009-11-03 09:33PSTYesunkUSGS37903.25 UnspecifiedDebrisLightNONE
8052009-11-03 09:28PSTYesunkUSGS40603.25 UnspecifiedDebrisLightNONE
8042009-11-03 09:22PSTYesunkUSGS44903.25 UnspecifiedDebrisLightNONE
8032009-11-03 09:15PSTYesunkUSGS46503.27 UnspecifiedDebrisLightNONE
8022009-11-03 09:07PSTYesunkUSGS48703.27 UnspecifiedDebrisLightNONE
8012009-11-03 09:00PSTYesunkUSGS50803.31 UnspecifiedDebrisLightNONE
8002009-11-03 08:54PSTYesunkUSGS51903.31 UnspecifiedDebrisLightNONE
7992009-11-03 08:46PSTYesunkUSGS53103.36 UnspecifiedDebrisLightNONE
7982009-11-03 08:40PSTYesunkUSGS54203.36 UnspecifiedDebrisLightNONE
7972009-11-03 08:33PSTYesunkUSGS53803.43 UnspecifiedDebrisLightNONE
7962009-11-03 08:28PSTYesunkUSGS55003.43 UnspecifiedDebrisLightNONE
7952009-11-03 08:10PSTYesunkUSGS56903.50 UnspecifiedDebrisLightNONE
7942009-11-03 08:04PSTYesunkUSGS56803.58 UnspecifiedDebrisLightNONE
7932009-11-03 07:39PSTYesunkUSGS55603.66 UnspecifiedDebrisLightNONE
7922009-11-03 07:33PSTYesunkUSGS56203.75 UnspecifiedDebrisLightNONE
7912009-11-03 07:26PSTYesunkUSGS55403.75 UnspecifiedDebrisLightNONE
7902009-11-03 07:20PSTYesunkUSGS54703.75 UnspecifiedDebrisLightNONE
7892009-11-03 07:11PSTYesunkUSGS54603.86 UnspecifiedDebrisLightNONE
7882009-11-03 07:05PSTYesBJS/CBUSGS53503.96 UnspecifiedUnspecifedNONE
7872009-01-08 12:02PSTYesBJS/PHKUSGS-80405.99 Unspecified NONE
7862009-01-08 11:57PSTYesBJS/PHKUSGS-79105.97 Unspecified NONE
7852009-01-08 11:53PSTYesBJS/PHKUSGS-83405.96 Unspecified NONE
7842009-01-08 11:47PSTYesBJS/PHKUSGS-83705.93 Unspecified NONE
7832009-01-08 11:43PSTYesBJS/PHKUSGS-85805.91 Unspecified NONE
7822009-01-08 11:40PSTYesBJS/PHKUSGS-82805.89 Unspecified NONE
7812009-01-08 11:35PSTYesBJS/PHKUSGS-84005.87 Unspecified NONE
7802009-01-08 11:30PSTYesBJS/PHKUSGS-86105.84 Unspecified NONE
7792008-08-21 08:42PSTYesBJS/CRBUSGS52504.39 Unspecified NONE
7782008-08-21 08:36PSTYesBJS/CRBUSGS48704.42 Unspecified NONE
7772008-08-21 08:31PSTYesBJS/CRBUSGS44304.46 Unspecified NONE
7762008-08-21 08:26PSTYesBJS/CRBUSGS40704.50 Unspecified NONE
7752008-08-21 08:21PSTYesBJS/CRBUSGS36604.53 Unspecified NONE
7742008-08-21 08:17PSTYesBJS/CRBUSGS32404.56 Unspecified NONE
7732008-08-21 08:11PSTYesBJS/CRBUSGS27504.62 Unspecified NONE
7722008-08-21 08:04PSTYesBJS/CRBUSGS18104.72 Unspecified NONE
7712008-08-21 07:55PSTYesBJS/CRBUSGS8024.78 Unspecified NONE
7702008-08-21 07:49PSTYesBJS/CRBUSGS34.04.78 Unspecified NONE
7692008-06-18 09:56PSTYesBJS/CRBUSGS72602.84 Unspecified NONE
7682008-06-18 09:50PSTYesBJS/CRBUSGS70702.87 Unspecified NONE
7672008-06-18 09:44PSTYesBJS/CRBUSGS72602.91 Unspecified NONE
7662008-06-18 09:40PSTYesBJS/CRBUSGS74502.95 Unspecified NONE
7652008-06-18 09:35PSTYesBJS/CRBUSGS73603.00 Unspecified NONE
7642008-06-18 09:28PSTYesBJS/CRBUSGS74103.06 Unspecified NONE
7632008-06-18 09:22PSTYesBJS/CRBUSGS74303.09 Unspecified NONE
7622008-06-18 09:17PSTYesBJS/CRBUSGS75103.11 Unspecified NONE
7612008-06-18 09:11PSTYesBJS/CRBUSGS77803.16 Unspecified NONE
7602008-06-18 09:05PSTYesBJS/CRBUSGS75103.23 Unspecified NONE
7592008-05-27 15:28PSTYesBJS/CRBUSGS49601.91 Unspecified NONE
7582008-05-27 15:24PSTYesBJS/CRBUSGS49001.93 Unspecified NONE
7572008-05-27 15:19PSTYesBJS/CRBUSGS50901.94 Unspecified NONE
7562008-05-27 15:14PSTYesBJS/CRBUSGS50801.96 Unspecified NONE
7552008-05-27 15:09PSTYesBJS/CRBUSGS52501.97 Unspecified NONE
7542008-05-27 15:04PSTYesBJS/CRBUSGS53201.97 Unspecified NONE
7532008-05-27 14:59PSTYesBJS/CRBUSGS55001.98 Unspecified NONE
7522008-05-27 14:46PSTYesBJS/CRBUSGS57002.07 Unspecified NONE
7512008-05-27 14:40PSTYesBJS/CRBUSGS55802.11 Unspecified NONE
7502008-05-27 14:33PSTYesBJS/CRBUSGS57802.17 Unspecified NONE
7492008-05-27 14:26PSTYesBJS/CRBUSGS58402.22 Unspecified NONE
7482008-05-27 14:21PSTYesBJS/CRBUSGS58702.26 Unspecified NONE
7472008-05-27 14:15PSTYesBJS/CRBUSGS60302.30 Unspecified NONE
7462008-05-27 14:10PSTYesBJS/CRBUSGS60302.33 Unspecified NONE
7452008-05-27 14:06PSTYesBJS/CRBUSGS59402.36 Unspecified NONE
7442008-05-27 13:33PSTYesBJS/CRBUSGS62802.59 Unspecified NONE
7432008-05-27 13:27PSTYesBJS/CRBUSGS63802.63 Unspecified NONE
7422008-05-27 13:21PSTYesBJS/CRBUSGS63102.67 Unspecified NONE
7412008-05-27 13:15PSTYesBJS/CRBUSGS63202.71 Unspecified NONE
7402008-05-27 13:09PSTYesBJS/CRBUSGS66202.76 Unspecified NONE
7392008-05-27 13:03PSTYesBJS/CRBUSGS66002.81 Unspecified NONE
7382008-05-27 12:43PSTYesBJS/CRBUSGS65102.98 Unspecified NONE
7372008-05-27 12:38PSTYesBJS/CRBUSGS67803.02 Unspecified NONE
7362008-05-27 12:33PSTYesBJS/CRBUSGS66803.07 Unspecified NONE
7352008-05-27 12:27PSTYesBJS/CRBUSGS68103.12 Unspecified NONE
7342008-05-27 12:22PSTYesBJS/CRBUSGS66003.16 Unspecified NONE
7332008-05-27 12:17PSTYesBJS/CRBUSGS71603.20 Unspecified NONE
7322008-05-27 11:50PSTYesBJS/CRBUSGS67503.41 Unspecified NONE
7312008-05-27 11:44PSTYesBJS/CRBUSGS70903.46 Unspecified NONE
7302008-05-27 11:38PSTYesBJS/CRBUSGS70103.50 Unspecified NONE
7292008-05-27 11:32PSTYesBJS/CRBUSGS70603.55 Unspecified NONE
7282008-05-27 11:27PSTYesBJS/CRBUSGS70103.60 Unspecified NONE
7272008-05-27 11:21PSTYesBJS/CRBUSGS70603.64 Unspecified NONE
7262008-05-27 11:00PSTYesBJS/CRBUSGS67303.76 Unspecified NONE
7252008-05-27 10:55PSTYesBJS/CRBUSGS71603.80 Unspecified NONE
7242008-05-27 10:49PSTYesBJS/CRBUSGS69403.86 Unspecified NONE
7232008-05-27 10:42PSTYesBJS/CRBUSGS70603.90 Unspecified NONE
7222008-05-27 10:35PSTYesBJS/CRBUSGS68503.92 Unspecified NONE
7212008-05-27 10:29PSTYesBJS/CRBUSGS69803.95 Unspecified NONE
7202008-05-27 10:22PSTYesBJS/CRBUSGS68304.00 Unspecified NONE
7192008-05-27 10:16PSTYesBJS/CRBUSGS66204.05 Unspecified NONE
7182008-05-27 10:11PSTYesBJS/CRBUSGS64804.10 Unspecified NONE
7172008-05-27 10:06PSTYesBJS/CRBUSGS64204.13 Unspecified NONE
7162007-12-04 09:37PSTYesJRY/CRBUSGS-72704.14 Unspecified NONE
7152007-12-04 09:31PSTYesJRY/CRBUSGS-71704.09 Unspecified NONE
7142007-12-04 09:23PSTYesJRY/CRBUSGS-71104.03 Unspecified NONE
7132007-12-04 09:15PSTYesJRY/CRBUSGS-70603.96 Unspecified NONE
7122007-12-04 09:07PSTYesJRY/CRBUSGS-68603.90 Unspecified NONE
7112007-12-04 09:00PSTYesJRY/CRBUSGS-69003.84 Unspecified NONE
7102007-12-04 08:52PSTYesJRY/CRBUSGS-67403.77 Unspecified NONE
7092007-12-04 08:45PSTYesJRY/CRBUSGS-65703.71 Unspecified NONE
7082007-12-04 08:37PSTYesJRY/CRBUSGS-66803.64 Unspecified NONE
7072007-12-04 08:30PSTYesJRY/CRBUSGS-64503.57 Unspecified NONE
7062007-12-04 08:21PSTYesJRY/CRBUSGS-63203.49 Unspecified NONE
7052007-12-04 08:15PSTYesJRY/CRBUSGS-61203.44 Unspecified NONE
7042007-12-04 08:08PSTYesJRY/CRBUSGS-60403.37 Unspecified NONE
7032007-12-04 08:02PSTYesJRY/CRBUSGS-59403.31 Unspecified NONE
7022007-12-04 07:55PSTYesJRY/CRBUSGS-56803.25 Unspecified NONE
7012007-12-04 07:48PSTYesJRY/CRBUSGS-53003.18 Unspecified NONE
7002007-12-04 07:40PSTYesJRY/CRBUSGS-50203.10 Unspecified NONE
6992007-12-04 07:33PSTYesJRY/CRBUSGS-45203.04 Unspecified NONE
6982007-12-04 07:24PSTYesJRY/CRBUSGS-40702.96 Unspecified NONE
6972007-12-04 07:17PSTYesJRY/CRBUSGS-32602.89 Unspecified NONE
6962007-12-04 07:09PSTYesJRY/CRBUSGS-26202.81 Unspecified NONE
6952007-12-04 07:01PSTYesJRY/CRBUSGS-15802.75 Unspecified NONE
6942007-12-04 06:55PSTYesJRY/CRBUSGS-9142.70 Unspecified NONE
6932007-12-04 06:49PSTYesJRY/CRBUSGS-1612.64 Unspecified NONE
6922007-12-04 06:42PSTYesJRY/CRBUSGS5492.59 Unspecified NONE
6912007-12-04 06:35PSTYesJRY/CRBUSGS10802.54 Unspecified NONE
6902007-12-04 06:26PSTYesJRY/CRBUSGS17402.49 Unspecified NONE
6892007-12-04 06:20PSTYesJRY/CRBUSGS21502.46 Unspecified NONE
6882007-12-04 06:14PSTYesJRY/CRBUSGS26002.43 Unspecified NONE
6872007-12-04 06:06PSTYesJRY/CRBUSGS29702.41 Unspecified NONE
6862007-12-04 06:00PSTYesJRY/CRBUSGS32202.40 Unspecified NONE
6852007-12-04 05:54PSTYesJRY/CRBUSGS36202.40 Unspecified NONE
6842007-12-04 05:48PSTYesJRY/CRBUSGS35902.41 Unspecified NONE
6832007-12-04 05:43PSTYesJRY/CRBUSGS38502.41 Unspecified NONE
6822007-12-04 05:37PSTYesJRY/CRBUSGS40502.43 Unspecified NONE
6812007-12-04 05:32PSTYesJRY/CRBUSGS41902.45 Unspecified NONE
6802007-12-04 05:27PSTYesJRY/CRBUSGS42202.46 Unspecified NONE
6792007-12-04 05:22PSTYesJRY/CRBUSGS43102.48 Unspecified NONE
6782007-12-04 05:17PSTYesJRY/CRBUSGS44902.50 Unspecified NONE
6772007-12-04 05:12PSTYesJRY/CRBUSGS45802.52 Unspecified NONE
6762007-12-04 05:05PSTYesJRY/CRBUSGS44902.56 Unspecified NONE
6752007-12-04 04:59PSTYesJRY/CRBUSGS48102.58 Unspecified NONE
6742007-12-04 04:39PSTYesJRY/CRBUSGS50402.70 Unspecified NONE
6732007-12-04 04:33PSTYesJRY/CRBUSGS50202.73 Unspecified NONE
6722007-12-04 04:29PSTYesJRY/CRBUSGS50602.76 Unspecified NONE
6712007-12-04 04:24PSTYesJRY/CRBUSGS50702.78 Unspecified NONE
6702007-12-03 15:36PSTYesJRY/CRBUSGS67703.28 Unspecified NONE
6692007-12-03 15:30PSTYesJRY/CRBUSGS68103.34 Unspecified NONE
6682007-12-03 15:24PSTYesJRY/CRBUSGS66903.37 Unspecified NONE
6672007-12-03 15:19PSTYesJRY/CRBUSGS67703.41 Unspecified NONE
6662007-12-03 15:12PSTYesJRY/CRBUSGS67303.53 Unspecified NONE
6652007-12-03 15:06PSTYesJRY/CRBUSGS68503.52 Unspecified NONE
6642007-12-03 14:46PSTYesJRY/CRBUSGS67603.66 Unspecified NONE
6632007-12-03 14:39PSTYesJRY/CRBUSGS67603.72 Unspecified NONE
6622007-12-03 14:33PSTYesJRY/CRBUSGS66603.76 Unspecified NONE
6612007-12-03 14:26PSTYesJRY/CRBUSGS64803.81 Unspecified NONE
6602007-12-03 14:19PSTYesJRY/CRBUSGS63403.88 Unspecified NONE
6592007-12-03 14:13PSTYesJRY/CRBUSGS64203.90 Unspecified NONE
6582007-12-03 14:06PSTYesJRY/CRBUSGS61903.96 Unspecified NONE
6572007-12-03 13:59PSTYesJRY/CRBUSGS60904.10 Unspecified NONE
6562007-12-03 13:53PSTYesJRY/CRBUSGS56404.11 Unspecified NONE
6552007-12-03 13:46PSTYesJRY/CRBUSGS51404.16 Unspecified NONE
6542007-12-03 13:25PSTYesJRY/CRBUSGS32204.31 Unspecified NONE
6532007-12-03 13:18PSTYesJRY/CRBUSGS24704.38 Unspecified NONE
6522007-12-03 13:13PSTYesJRY/CRBUSGS18104.42 Unspecified NONE
6512007-12-03 13:06PSTYesJRY/CRBUSGS8664.47 Unspecified NONE
6502007-12-03 13:01PSTYesJRY/CRBUSGS59.04.56 Unspecified NONE
6492007-12-03 12:54PSTYesJRY/CRBUSGS-8214.53 Unspecified NONE
6482007-12-03 12:48PSTYesJRY/CRBUSGS-14904.59 Unspecified NONE
6472007-12-03 12:43PSTYesJRY/CRBUSGS-19704.62 Unspecified NONE
6462007-12-03 12:37PSTYesJRY/CRBUSGS-25204.65 Unspecified NONE
6452007-12-03 12:29PSTYesJRY/CRBUSGS-31604.63 Unspecified NONE
6442007-12-03 12:22PSTYesJRY/CRBUSGS-35404.68 Unspecified NONE
6432007-12-03 12:15PSTYesJRY/CRBUSGS-40104.70 Unspecified NONE
6422007-12-03 12:10PSTYesJRY/CRBUSGS-42704.70 Unspecified NONE
6412007-12-03 12:01PSTYesJRY/CRBUSGS-46104.67 Unspecified NONE
6402007-12-03 11:53PSTYesJRY/CRBUSGS-51604.66 Unspecified NONE
6392007-12-03 11:45PSTYesJRY/CRBUSGS-55504.64 Unspecified NONE
6382007-12-03 11:39PSTYesJRY/CRBUSGS-58004.69 Unspecified NONE
6372007-12-03 11:33PSTYesJRY/CRBUSGS-60104.66 Unspecified NONE
6362007-12-03 11:28PSTYesJRY/CRBUSGS-60704.66 Unspecified NONE
6352007-12-03 10:56PSTYesJRY/CRBUSGS-68704.47 Unspecified NONE
6342007-12-03 10:25PSTYesJRY/CRBUSGS-74604.30 Unspecified NONE
6332007-12-03 10:17PSTYesJRY/CRBUSGS-73704.25 Unspecified NONE
6322007-12-03 10:07PSTYesJRY/CRBUSGS-75204.20 Unspecified NONE
6312007-12-03 09:59PSTYesJRY/CRBUSGS-74604.15 Unspecified NONE
6302007-12-03 09:48PSTYesJRY/CRBUSGS-76404.07 Unspecified NONE
6292007-12-03 09:40PSTYesJRY/CRBUSGS-80203.99 Unspecified NONE
6282007-12-03 09:32PSTYesJRY/CRBUSGS-76503.95 Unspecified NONE
6272007-12-03 09:26PSTYesJRY/CRBUSGS-77603.85 Unspecified NONE
6262007-12-03 09:20PSTYesJRY/CRBUSGS-76503.82 Unspecified NONE
6252007-12-03 09:13PSTYesJRY/CRBUSGS-73703.79 Unspecified NONE
6242007-12-03 08:40PSTYesJRY/CRBUSGS-72503.49 Unspecified NONE
6232007-12-03 08:33PSTYesJRY/CRBUSGS-72503.51 Unspecified NONE
6222007-12-03 08:25PSTYesJRY/CRBUSGS-73603.52 Unspecified NONE
6212007-12-03 08:18PSTYesJRY/CRBUSGS-69503.30 Unspecified NONE
6202007-12-03 08:09PSTYesJRY/CRBUSGS-70003.24 Unspecified NONE
6192007-12-03 08:02PSTYesJRY/CRBUSGS-69803.16 Unspecified NONE
6182007-12-03 07:55PSTYesJRY/CRBUSGS-69603.12 Unspecified NONE
6172007-12-03 07:48PSTYesJRY/CRBUSGS-67003.02 Unspecified NONE
6162007-11-21 16:04PSTYesJRY/CRBUSGS70903.74 Unspecified NONE
6152007-11-21 15:57PSTYesJRY/CRBUSGS71603.79 Unspecified NONE
6142007-11-21 15:50PSTYesJRY/CRBUSGS72103.85 Unspecified NONE
6132007-11-21 15:44PSTYesJRY/CRBUSGS71403.92 Unspecified NONE
6122007-11-21 15:38PSTYesJRY/CRBUSGS69803.97 Unspecified NONE
6112007-11-21 15:33PSTYesJRY/CRBUSGS72104.01 Unspecified NONE
6102007-11-21 15:28PSTYesJRY/CRBUSGS69704.06 Unspecified NONE
6092007-11-21 15:22PSTYesJRY/CRBUSGS69904.11 Unspecified NONE
6082007-11-21 15:16PSTYesJRY/CRBUSGS68704.17 Unspecified NONE
6072007-11-21 15:10PSTYesJRY/CRBUSGS66504.22 Unspecified NONE
6062007-11-21 15:05PSTYesJRY/CRBUSGS64404.27 Unspecified NONE
6052007-11-21 14:59PSTYesJRY/CRBUSGS62804.33 Unspecified NONE
6042007-11-21 14:53PSTYesJRY/CRBUSGS59704.39 Unspecified NONE
6032007-11-21 14:47PSTYesJRY/CRBUSGS56304.45 Unspecified NONE
6022007-11-21 14:40PSTYesJRY/CRBUSGS48604.53 Unspecified NONE
6012007-11-21 14:33PSTYesJRY/CRBUSGS41204.61 Unspecified NONE
6002007-11-21 14:27PSTYesJRY/CRBUSGS34004.67 Unspecified NONE
5992007-11-21 14:22PSTYesJRY/CRBUSGS26404.73 Unspecified NONE
5982007-11-21 14:12PSTYesJRY/CRBUSGS9924.83 Unspecified NONE
5972007-11-21 14:07PSTYesJRY/CRBUSGS2734.87 Unspecified NONE
5962007-11-21 14:02PSTYesJRY/CRBUSGS-4784.92 Unspecified NONE
5952007-11-21 13:57PSTYesJRY/CRBUSGS-12104.96 Unspecified NONE
5942007-11-21 13:48PSTYesJRY/CRBUSGS-24005.02 Unspecified NONE
5932007-11-21 13:43PSTYesJRY/CRBUSGS-29005.05 Unspecified NONE
5922007-11-21 13:38PSTYesJRY/CRBUSGS-34705.08 Unspecified NONE
5912007-11-21 13:32PSTYesJRY/CRBUSGS-38905.11 Unspecified NONE
5902007-11-21 13:26PSTYesJRY/CRBUSGS-45005.12 Unspecified NONE
5892007-11-21 13:20PSTYesJRY/CRBUSGS-49605.14 Unspecified NONE
5882007-11-21 13:13PSTYesJRY/CRBUSGS-52905.15 Unspecified NONE
5872007-11-21 13:06PSTYesJRY/CRBUSGS-58805.14 Unspecified NONE
5862007-11-21 12:59PSTYesJRY/CRBUSGS-62805.13 Unspecified NONE
5852007-11-21 12:53PSTYesJRY/CRBUSGS-64105.12 Unspecified NONE
5842007-11-21 12:46PSTYesJRY/CRBUSGS-65905.10 Unspecified NONE
5832007-11-21 12:40PSTYesJRY/CRBUSGS-70505.08 Unspecified NONE
5822007-11-21 12:33PSTYesJRY/CRBUSGS-70105.06 Unspecified NONE
5812007-11-21 12:26PSTYesJRY/CRBUSGS-71805.03 Unspecified NONE
5802007-11-21 12:20PSTYesJRY/CRBUSGS-75204.98 Unspecified NONE
5792007-11-21 12:13PSTYesJRY/CRBUSGS-74104.95 Unspecified NONE
5782007-11-21 12:06PSTYesJRY/CRBUSGS-77204.91 Unspecified NONE
5772007-11-21 12:00PSTYesJRY/CRBUSGS-78804.86 Unspecified NONE
5762007-11-21 11:08PSTYesJRY/CRBUSGS-81704.50 Unspecified NONE
5752007-11-21 11:01PSTYesJRY/CRBUSGS-82604.44 Unspecified NONE
5742007-11-21 10:54PSTYesJRY/CRBUSGS-81604.39 Unspecified NONE
5732007-11-21 10:47PSTYesJRY/CRBUSGS-83604.34 Unspecified NONE
5722007-11-21 10:40PSTYesJRY/CRBUSGS-82204.27 Unspecified NONE
5712007-11-21 10:33PSTYesJRY/CRBUSGS-84204.21 Unspecified NONE
5702007-11-21 10:28PSTYesJRY/CRBUSGS-82704.16 Unspecified NONE
5692007-11-21 10:22PSTYesJRY/CRBUSGS-79604.12 Unspecified NONE
5682006-09-12 17:56PSTYes???USGS-76905.71 Unspecified NONE
5672006-09-12 17:50PSTYes???USGS-78205.66 Unspecified NONE
5662006-09-12 17:45PSTYes???USGS-78605.63 Unspecified NONE
5652006-09-12 17:39PSTYes???USGS-80805.58 Unspecified NONE
5642006-09-12 17:33PSTYes???USGS-80105.53 Unspecified NONE
5632006-09-12 17:27PSTYes???USGS-81205.48 Unspecified NONE
5622006-09-12 17:22PSTYes???USGS-84405.44 Unspecified NONE
5612006-09-12 17:16PSTYes???USGS-81805.38 Unspecified NONE
5602006-09-12 17:08PSTYes???USGS-80805.32 Unspecified NONE
5592006-09-12 17:01PSTYes???USGS-80805.26 Unspecified NONE
5582006-09-12 16:30PSTYes???USGS-77805.02 Unspecified NONE
5572006-09-12 16:24PSTYes???USGS-79104.98 Unspecified NONE
5562006-09-12 16:20PSTYes???USGS-79604.94 Unspecified NONE
5552006-09-12 16:15PSTYes???USGS-78404.90 Unspecified NONE
5542006-09-12 16:10PSTYes???USGS-78604.86 Unspecified NONE
5532006-09-12 16:06PSTYes???USGS-78804.83 Unspecified NONE
5522006-09-12 15:52PSTYes???USGS-75504.71 Unspecified NONE
5512006-09-12 15:46PSTYes???USGS-75004.65 Unspecified NONE
5502006-09-12 15:40PSTYes???USGS-74704.59 Unspecified NONE
5492006-09-12 15:34PSTYes???USGS-73604.53 Unspecified NONE
5482006-09-12 15:28PSTYes???USGS-72304.47 Unspecified NONE
5472006-09-12 15:22PSTYes???USGS-70004.41 Unspecified NONE
5462006-09-12 14:57PSTYes???USGS-63204.17 Unspecified NONE
5452006-09-12 14:50PSTYes???USGS-61404.10 Unspecified NONE
5442006-09-12 14:42PSTYes???USGS-57204.02 Unspecified NONE
5432006-09-12 14:37PSTYes???USGS-53003.96 Unspecified NONE
5422006-09-12 14:32PSTYes???USGS-48803.91 Unspecified NONE
5412006-09-12 14:26PSTYes???USGS-44003.85 Unspecified NONE
5402006-09-12 14:13PSTYes???USGS-31103.70 Unspecified NONE
5392006-09-12 13:58PSTYes???USGS-11803.54 Unspecified NONE
5382006-09-12 13:53PSTYes???USGS-5062.39 Unspecified NONE
5372006-09-12 13:46PSTYes???USGS4472.99 Unspecified NONE
5362006-09-12 13:41PSTYes???USGS10303.35 Unspecified NONE
5352006-09-12 13:34PSTYes???USGS15703.31 Unspecified NONE
5342006-09-12 13:30PSTYes???USGS19403.29 Unspecified NONE
5332006-09-12 13:24PSTYes???USGS24403.27 Unspecified NONE
5322006-09-12 13:08PSTYes???USGS34103.24 Unspecified NONE
5312006-09-12 13:03PSTYes???USGS35303.25 Unspecified NONE
5302006-09-12 12:58PSTYes???USGS38103.25 Unspecified NONE
5292006-09-12 12:53PSTYes???USGS39003.27 Unspecified NONE
5282006-09-12 12:48PSTYes???USGS40203.28 Unspecified NONE
5272006-09-12 12:43PSTYes???USGS41103.30 Unspecified NONE
5262006-09-12 12:38PSTYes???USGS43403.32 Unspecified NONE
5252006-09-12 12:33PSTYes???USGS43703.34 Unspecified NONE
5242006-09-12 12:26PSTYes???USGS46703.36 Unspecified NONE
5232006-09-12 12:20PSTYes???USGS47103.39 Unspecified NONE
5222006-09-12 12:13PSTYes???USGS49503.42 Unspecified NONE
5212006-09-12 12:07PSTYes???USGS46603.45 Unspecified NONE
5202006-09-12 12:02PSTYes???USGS51203.47 Unspecified NONE
5192006-09-12 11:49PSTYes???USGS51403.48 Unspecified NONE
5182006-09-12 10:54PSTYes???USGS54203.94 Unspecified NONE
5172006-09-12 10:48PSTYes???USGS52203.97 Unspecified NONE
5162006-09-12 10:42PSTYes???USGS52704.01 Unspecified NONE
5152006-09-12 10:35PSTYes???USGS52304.05 Unspecified NONE
5142006-09-12 10:28PSTYes???USGS51204.10 Unspecified NONE
5132006-09-12 10:20PSTYes???USGS50104.12 Unspecified NONE
5122006-09-12 10:14PSTYes???USGS49204.19 Unspecified NONE
5112006-09-12 10:08PSTYes???USGS48204.22 Unspecified NONE
5102006-09-12 10:02PSTYes???USGS46604.26 Unspecified NONE
5092006-09-12 09:56PSTYes???USGS46704.31 Unspecified NONE
5082006-09-12 09:49PSTYes???USGS42404.36 Unspecified NONE
5072006-09-12 09:43PSTYes???USGS38204.39 Unspecified NONE
5062006-09-12 09:36PSTYes???USGS35004.45 Unspecified NONE
5052006-09-12 09:30PSTYes???USGS29404.50 Unspecified NONE
5042006-09-12 09:19PSTYes???USGS20604.58 Unspecified NONE
5032006-09-12 09:09PSTYes???USGS10804.63 Unspecified NONE
5022006-09-12 09:02PSTYes???USGS3184.67 Unspecified NONE
5012006-09-12 08:55PSTYes???USGS-4284.69 Unspecified NONE
5002006-09-12 08:46PSTYes???USGS-12404.73 Unspecified NONE
4992006-09-12 08:39PSTYes???USGS-17704.75 Unspecified NONE
4982006-01-20 16:58PSTYes???USGS-27004.01 Unspecified NONE
4972006-01-20 16:52PSTYes???USGS-22003.97 Unspecified NONE
4962006-01-20 16:46PSTYes???USGS-18603.94 Unspecified NONE
4952006-01-20 16:40PSTYes???USGS-14903.91 Unspecified NONE
4942006-01-20 16:35PSTYes???USGS-11603.88 Unspecified NONE
4932006-01-20 16:29PSTYes???USGS-7323.85 Unspecified NONE
4922006-01-20 16:23PSTYes???USGS-3583.82 Unspecified NONE
4912006-01-20 16:19PSTYes???USGS-18.03.80 Unspecified NONE
4902006-01-20 16:14PSTYes???USGS2333.78 Unspecified NONE
4892006-01-20 16:09PSTYes???USGS6293.75 Unspecified NONE
4882006-01-20 16:03PSTYes???USGS9543.72 Unspecified NONE
4872006-01-20 15:57PSTYes???USGS13403.70 Unspecified NONE
4862006-01-20 15:51PSTYes???USGS17003.67 Unspecified NONE
4852006-01-20 15:45PSTYes???USGS20103.65 Unspecified NONE
4842006-01-20 15:37PSTYes???USGS23003.63 Unspecified NONE
4832006-01-20 15:31PSTYes???USGS26303.62 Unspecified NONE
4822006-01-20 15:25PSTYes???USGS28303.61 Unspecified NONE
4812006-01-20 15:18PSTYes???USGS30903.60 Unspecified NONE
4802006-01-20 15:11PSTYes???USGS32203.59 Unspecified NONE
4792006-01-20 15:04PSTYes???USGS35203.59 Unspecified NONE
4782006-01-20 14:59PSTYes???USGS36003.60 Unspecified NONE
4772006-01-20 14:53PSTYes???USGS38603.60 Unspecified NONE
4762006-01-20 14:26PSTYes???USGS43603.65 Unspecified NONE
4752006-01-20 14:20PSTYes???USGS43103.66 Unspecified NONE
4742006-01-20 14:14PSTYes???USGS44603.68 Unspecified NONE
4732006-01-20 14:08PSTYes???USGS46103.70 Unspecified NONE
4722006-01-20 14:02PSTYes???USGS46303.72 Unspecified NONE
4712006-01-20 13:56PSTYes???USGS47503.75 Unspecified NONE
4702006-01-20 13:49PSTYes???USGS46503.77 Unspecified NONE
4692006-01-20 13:43PSTYes???USGS49203.80 Unspecified NONE
4682006-01-20 13:11PSTYes???USGS53503.94 Unspecified NONE
4672006-01-20 13:04PSTYes???USGS54403.97 Unspecified NONE
4662006-01-20 12:58PSTYes???USGS56704.01 Unspecified NONE
4652006-01-20 12:51PSTYes???USGS55804.05 Unspecified NONE
4642006-01-20 12:44PSTYes???USGS57404.10 Unspecified NONE
4632006-01-20 12:37PSTYes???USGS57404.13 Unspecified NONE
4622006-01-20 12:31PSTYes???USGS57704.16 Unspecified NONE
4612006-01-20 12:24PSTYes???USGS59104.20 Unspecified NONE
4602006-01-20 12:17PSTYes???USGS59304.24 Unspecified NONE
4592006-01-20 12:11PSTYes???USGS58604.27 Unspecified NONE
4582006-01-20 12:04PSTYes???USGS59004.30 Unspecified NONE
4572006-01-20 11:58PSTYes???USGS60304.33 Unspecified NONE
4562006-01-20 11:28PSTYes???USGS61204.48 Unspecified NONE
4552006-01-20 11:22PSTYes???USGS61404.51 Unspecified NONE
4542006-01-20 11:14PSTYes???USGS62004.56 Unspecified NONE
4532006-01-20 11:07PSTYes???USGS59904.59 Unspecified NONE
4522006-01-20 10:59PSTYes???USGS59404.64 Unspecified NONE
4512006-01-20 10:51PSTYes???USGS58104.68 Unspecified NONE
4502006-01-20 10:30PSTYes???USGS56604.79 Unspecified NONE
4492006-01-20 10:25PSTYes???USGS56904.83 Unspecified NONE
4482006-01-20 10:19PSTYes???USGS54304.86 Unspecified NONE
4472006-01-20 10:14PSTYes???USGS54104.89 Unspecified NONE
4462006-01-20 10:07PSTYes???USGS51604.93 Unspecified NONE
4452006-01-20 10:00PSTYes???USGS48904.97 Unspecified NONE
4442006-01-20 09:53PSTYes???USGS45305.01 Unspecified NONE
4432006-01-20 09:47PSTYes???USGS40805.05 Unspecified NONE
4422006-01-20 09:41PSTYes???USGS37305.08 Unspecified NONE
4412006-01-20 09:34PSTYes???USGS31505.12 Unspecified NONE
4402006-01-20 09:26PSTYes???USGS23105.16 Unspecified NONE
4392006-01-20 09:18PSTYes???USGS16505.20 Unspecified NONE
4382006-01-20 09:12PSTYes???USGS9655.22 Unspecified NONE
4372006-01-20 09:06PSTYes???USGS3535.25 Unspecified NONE
4362006-01-20 08:58PSTYes???USGS-4715.26 Unspecified NONE
4352006-01-20 08:51PSTYes???USGS-10905.28 Unspecified NONE
4342006-01-20 08:44PSTYes???USGS-17405.29 Unspecified NONE
4332006-01-20 08:37PSTYes???USGS-22505.29 Unspecified NONE
4322006-01-20 08:30PSTYes???USGS-27105.29 Unspecified NONE
4312006-01-20 08:24PSTYes???USGS-31105.29 Unspecified NONE
4302006-01-20 08:17PSTYes???USGS-36605.27 Unspecified NONE
4292006-01-20 08:11PSTYes???USGS-38905.26 Unspecified NONE
4282005-10-17 17:04PSTYes???USGS28505.12 Unspecified NONE
4272005-10-17 17:00PSTYes???USGS23005.16 Unspecified NONE
4262005-10-17 16:56PSTYes???USGS17205.20 Unspecified NONE
4252005-10-17 16:52PSTYes???USGS11705.24 Unspecified NONE
4242005-10-17 16:48PSTYes???USGS4855.28 Unspecified NONE
4232005-10-17 16:42PSTYes???USGS-2805.32 Unspecified NONE
4222005-10-17 16:38PSTYes???USGS-10205.36 Unspecified NONE
4212005-10-17 16:32PSTYes???USGS-16905.40 Unspecified NONE
4202005-10-17 16:27PSTYes???USGS-22905.43 Unspecified NONE
4192005-10-17 16:22PSTYes???USGS-27605.45 Unspecified NONE
4182005-10-17 16:18PSTYes???USGS-33005.47 Unspecified NONE
4172005-10-17 16:13PSTYes???USGS-37705.49 Unspecified NONE
4162005-10-17 16:09PSTYes???USGS-41505.50 Unspecified NONE
4152005-10-17 16:04PSTYes???USGS-46505.51 Unspecified NONE
4142005-10-17 15:59PSTYes???USGS-48005.51 Unspecified NONE
4132005-10-17 15:54PSTYes???USGS-50905.51 Unspecified NONE
4122005-10-17 15:49PSTYes???USGS-54405.51 Unspecified NONE
4112005-10-17 15:44PSTYes???USGS-56005.50 Unspecified NONE
4102005-10-17 15:39PSTYes???USGS-59705.48 Unspecified NONE
4092005-10-17 15:34PSTYes???USGS-62405.47 Unspecified NONE
4082005-10-17 15:26PSTYes???USGS-64805.44 Unspecified NONE
4072005-10-17 15:21PSTYes???USGS-64205.42 Unspecified NONE
4062005-10-17 15:17PSTYes???USGS-68605.41 Unspecified NONE
4052005-10-17 15:13PSTYes???USGS-68005.39 Unspecified NONE
4042005-10-17 15:08PSTYes???USGS-70605.36 Unspecified NONE
4032005-10-17 15:03PSTYes???USGS-72105.33 Unspecified NONE
4022005-10-17 14:35PSTYes???USGS-75605.16 Unspecified NONE
4012005-10-17 14:27PSTYes???USGS-73905.11 Unspecified NONE
4002005-10-17 14:20PSTYes???USGS-76605.05 Unspecified NONE
3992005-10-17 14:14PSTYes???USGS-74805.00 Unspecified NONE
3982005-10-17 14:08PSTYes???USGS-75404.96 Unspecified NONE
3972005-10-17 14:02PSTYes???USGS-80804.91 Unspecified NONE
3962005-10-17 13:21PSTYes???USGS-76504.57 Unspecified NONE
3952005-10-17 13:14PSTYes???USGS-75904.52 Unspecified NONE
3942005-10-17 12:56PSTYes???USGS-76704.39 Unspecified NONE
3932005-10-17 12:50PSTYes???USGS-77204.34 Unspecified NONE
3922005-10-17 12:43PSTYes???USGS-76504.29 Unspecified NONE
3912005-10-17 12:36PSTYes???USGS-74004.24 Unspecified NONE
3902005-10-17 12:31PSTYes???USGS-73704.19 Unspecified NONE
3892005-10-17 12:26PSTYes???USGS-72004.14 Unspecified NONE
3882005-10-17 12:20PSTYes???USGS-74004.09 Unspecified NONE
3872005-10-17 12:14PSTYes???USGS-70804.03 Unspecified NONE
3862005-10-17 12:09PSTYes???USGS-70303.97 Unspecified NONE
3852005-10-17 12:03PSTYes???USGS-68303.91 Unspecified NONE
3842005-10-17 11:58PSTYes???USGS-71403.85 Unspecified NONE
3832005-10-17 11:51PSTYes???USGS-66003.77 Unspecified NONE
3822005-10-17 11:45PSTYes???USGS-68003.70 Unspecified NONE
3812005-10-17 11:39PSTYes???USGS-65403.62 Unspecified NONE
3802005-10-17 11:24PSTYes???USGS-56603.42 Unspecified NONE
3792005-10-17 11:15PSTYes???USGS-52003.29 Unspecified NONE
3782005-10-17 11:06PSTYes???USGS-44103.18 Unspecified NONE
3772005-10-17 10:59PSTYes???USGS-37703.09 Unspecified NONE
3762005-10-17 10:50PSTYes???USGS-27802.97 Unspecified NONE
3752005-10-17 10:41PSTYes???USGS-14502.85 Unspecified NONE
3742005-10-17 10:37PSTYes???USGS-7812.79 Unspecified NONE
3732005-10-17 10:33PSTYes???USGS-1252.74 Unspecified NONE
3722005-10-17 10:28PSTYes???USGS4232.69 Unspecified NONE
3712005-10-17 10:21PSTYes???USGS13102.61 Unspecified NONE
3702005-10-17 10:16PSTYes???USGS18202.58 Unspecified NONE
3692005-10-17 10:11PSTYes???USGS22502.54 Unspecified NONE
3682005-10-17 10:04PSTYes???USGS27202.53 Unspecified NONE
3672005-10-17 09:56PSTYes???USGS31202.51 Unspecified NONE
3662005-10-17 09:50PSTYes???USGS34402.51 Unspecified NONE
3652005-10-17 09:44PSTYes???USGS36102.52 Unspecified NONE
3642005-10-17 09:35PSTYes???USGS37502.55 Unspecified NONE
3632005-10-17 09:29PSTYes???USGS39502.57 Unspecified NONE
3622005-10-17 09:24PSTYes???USGS43102.60 Unspecified NONE
3612005-10-17 09:18PSTYes???USGS41902.62 Unspecified NONE
3602005-10-17 09:01PSTYes???USGS46602.72 Unspecified NONE
3592005-10-17 08:55PSTYes???USGS47302.75 Unspecified NONE
3582005-10-17 08:49PSTYes???USGS48902.78 Unspecified NONE
3572005-10-17 08:44PSTYes???USGS50102.82 Unspecified NONE
3562003-09-10 18:00PSTYes???USGS295012.27 Unspecified NONE
3552003-09-10 17:54PSTYes???USGS226012.33 Unspecified NONE
3542003-09-10 17:47PSTYes???USGS124012.37 Unspecified NONE
3532003-09-10 17:41PSTYes???USGS39412.42 Unspecified NONE
3522003-09-10 17:35PSTYes???USGS-55512.46 Unspecified NONE
3512003-09-10 17:30PSTYes???USGS-106012.50 Unspecified NONE
3502003-09-10 17:24PSTYes???USGS-176012.53 Unspecified NONE
3492003-09-10 17:18PSTYes???USGS-250012.57 Unspecified NONE
3482003-09-10 17:11PSTYes???USGS-310012.60 Unspecified NONE
3472003-09-10 17:04PSTYes???USGS-363012.61 Unspecified NONE
3462003-09-10 16:58PSTYes???USGS-403012.62 Unspecified NONE
3452003-09-10 16:51PSTYes???USGS-437012.62 Unspecified NONE
3442003-09-10 16:44PSTYes???USGS-491012.62 Unspecified NONE
3432003-09-10 16:38PSTYes???USGS-519012.61 Unspecified NONE
3422003-09-10 16:31PSTYes???USGS-569012.60 Unspecified NONE
3412003-09-10 16:23PSTYes???USGS-595012.59 Unspecified NONE
3402003-09-10 16:16PSTYes???USGS-622012.56 Unspecified NONE
3392003-09-10 16:09PSTYes???USGS-639012.56 Unspecified NONE
3382003-09-10 16:01PSTYes???USGS-656012.53 Unspecified NONE
3372003-09-10 15:53PSTYes???USGS-679012.49 Unspecified NONE
3362003-09-10 15:46PSTYes???USGS-697012.44 Unspecified NONE
3352003-09-10 15:37PSTYes???USGS-713012.40 Unspecified NONE
3342003-09-10 15:30PSTYes???USGS-718012.36 Unspecified NONE
3332003-09-10 15:23PSTYes???USGS-741012.32 Unspecified NONE
3322003-09-10 15:15PSTYes???USGS-726012.28 Unspecified NONE
3312003-09-10 15:07PSTYes???USGS-765012.23 Unspecified NONE
3302003-09-10 15:00PSTYes???USGS-761012.19 Unspecified NONE
3292003-09-10 14:53PSTYes???USGS-755012.14 Unspecified NONE
3282003-09-10 14:47PSTYes???USGS-755012.10 Unspecified NONE
3272003-09-10 14:41PSTYes???USGS-764012.05 Unspecified NONE
3262003-09-10 14:33PSTYes???USGS-769012.01 Unspecified NONE
3252003-09-10 14:27PSTYes???USGS-758011.98 Unspecified NONE
3242003-09-10 13:31PSTYes???USGS-758011.63 Unspecified NONE
3232003-09-10 13:25PSTYes???USGS-781011.57 Unspecified NONE
3222003-09-10 13:17PSTYes???USGS-776011.51 Unspecified NONE
3212003-09-10 13:11PSTYes???USGS-781011.44 Unspecified NONE
3202003-09-10 13:05PSTYes???USGS-762011.39 Unspecified NONE
3192003-09-10 12:59PSTYes???USGS-784011.33 Unspecified NONE
3182003-09-10 12:06PSTYes???USGS-405010.67 Unspecified NONE
3172003-09-10 12:01PSTYes???USGS-284010.60 Unspecified NONE
3162003-09-10 11:54PSTYes???USGS-196010.49 Unspecified NONE
3152003-09-10 11:46PSTYes???USGS-29810.33 Unspecified NONE
3142003-09-10 11:37PSTYes???USGS79810.25 Unspecified NONE
3132003-09-10 11:28PSTYes???USGS207010.11 Unspecified NONE
3122003-09-10 11:20PSTYes???USGS289010.03 Unspecified NONE
3112003-09-10 11:12PSTYes???USGS34309.97 Unspecified NONE
3102003-09-10 11:05PSTYes???USGS43009.94 Unspecified NONE
3092003-09-10 10:58PSTYes???USGS44109.92 Unspecified NONE
3082003-09-10 10:52PSTYes???USGS46809.92 Unspecified NONE
3072003-09-10 10:45PSTYes???USGS47909.92 Unspecified NONE
3062003-09-10 10:38PSTYes???USGS51909.94 Unspecified NONE
3052003-09-10 10:32PSTYes???USGS52309.97 Unspecified NONE
3042003-09-10 10:25PSTYes???USGS56409.98 Unspecified NONE
3032003-09-10 10:18PSTYes???USGS557010.01 Unspecified NONE
3022003-09-10 10:11PSTYes???USGS56509.98 Unspecified NONE
3012003-09-10 10:05PSTYes???USGS562010.09 Unspecified NONE
3002003-09-10 09:59PSTYes???USGS583010.13 Unspecified NONE
2992003-09-10 09:52PSTYes???USGS606010.17 Unspecified NONE
2982003-09-10 09:34PSTYes???USGS611010.29 Unspecified NONE
2972003-09-10 09:27PSTYes???USGS616010.35 Unspecified NONE
2962003-09-10 09:19PSTYes???USGS628010.42 Unspecified NONE
2952003-09-10 09:12PSTYes???USGS630010.48 Unspecified NONE
2942003-09-10 09:04PSTYes???USGS654010.54 Unspecified NONE
2932003-09-10 08:56PSTYes???USGS659010.61 Unspecified NONE
2922003-09-10 08:49PSTYes???USGS678010.66 Unspecified NONE
2912003-09-10 08:42PSTYes???USGS670010.70 Unspecified NONE
2902003-09-10 08:35PSTYes???USGS697010.76 Unspecified NONE
2892003-09-10 08:28PSTYes???USGS684010.80 Unspecified NONE
2882003-09-10 08:16PSTYes???USGS698010.93 Unspecified NONE
2872003-09-10 08:09PSTYes???USGS722010.98 Unspecified NONE
2862003-09-10 08:02PSTYes???USGS735011.04 Unspecified NONE
2852003-09-10 07:54PSTYes???USGS752011.10 Unspecified NONE
2842003-09-10 07:45PSTYes???USGS747011.18 Unspecified NONE
2832003-09-10 07:37PSTYes???USGS765011.24 Unspecified NONE
2822003-09-10 07:29PSTYes???USGS771011.31 Unspecified NONE
2812003-09-10 07:22PSTYes???USGS766011.37 Unspecified NONE
2802003-09-10 07:14PSTYes???USGS767011.43 Unspecified NONE
2792003-09-10 07:07PSTYes???USGS753011.49 Unspecified NONE
2782003-09-10 06:58PSTYes???USGS762011.56 Unspecified NONE
2772003-09-10 06:48PSTYes???USGS776011.63 Unspecified NONE
2762003-09-10 06:38PSTYes???USGS738011.70 Unspecified NONE
2752001-03-14 16:18PSTYes???USGS-351010.66 Unspecified NONE
2742001-03-14 16:11PSTYes???USGS-266010.57 Unspecified NONE
2732001-03-14 16:05PSTYes???USGS-159010.49 Unspecified NONE
2722001-03-14 16:00PSTYes???USGS-76310.42 Unspecified NONE
2712001-03-14 15:55PSTYes???USGS15210.35 Unspecified NONE
2702001-03-14 15:50PSTYes???USGS69810.29 Unspecified NONE
2692001-03-14 15:45PSTYes???USGS146010.22 Unspecified NONE
2682001-03-14 15:34PSTYes???USGS272010.12 Unspecified NONE
2672001-03-14 15:28PSTYes???USGS311010.07 Unspecified NONE
2662001-03-14 15:20PSTYes???USGS379010.02 Unspecified NONE
2652001-03-14 15:12PSTYes???USGS41309.97 Unspecified NONE
2642001-03-14 15:03PSTYes???USGS46509.94 Unspecified NONE
2632001-03-14 14:54PSTYes???USGS50309.92 Unspecified NONE
2622001-03-14 14:44PSTYes???USGS55809.90 Unspecified NONE
2612001-03-14 14:34PSTYes???USGS56509.91 Unspecified NONE
2602001-03-14 14:24PSTYes???USGS60709.94 Unspecified NONE
2592001-03-14 14:14PSTYes???USGS624010.00 Unspecified NONE
2582001-03-14 13:23PSTYes???USGS695010.32 Unspecified NONE
2572001-03-14 13:13PSTYes???USGS720010.40 Unspecified NONE
2562001-03-14 13:03PSTYes???USGS712010.47 Unspecified NONE
2552001-03-14 12:54PSTYes???USGS724010.55 Unspecified NONE
2542001-03-14 12:04PSTYes???USGS808010.99 Unspecified NONE
2532001-03-14 11:57PSTYes???USGS791011.05 Unspecified NONE
2522001-03-14 11:49PSTYes???USGS814011.12 Unspecified NONE
2512001-03-14 11:42PSTYes???USGS798011.19 Unspecified NONE
2502001-03-14 11:34PSTYes???USGS782011.27 Unspecified NONE
2492001-03-14 11:26PSTYes???USGS801011.34 Unspecified NONE
2482001-03-14 11:17PSTYes???USGS796011.40 Unspecified NONE
2472001-03-14 11:08PSTYes???USGS804011.47 Unspecified NONE
2462001-03-14 11:00PSTYes???USGS797011.53 Unspecified NONE
2452001-03-14 10:52PSTYes???USGS806011.60 Unspecified NONE
2442001-03-14 10:44PSTYes???USGS795011.67 Unspecified NONE
2432001-03-14 10:36PSTYes???USGS804011.73 Unspecified NONE
2422001-03-14 10:30PSTYes???USGS772011.79 Unspecified NONE
2412001-03-14 10:24PSTYes???USGS789011.83 Unspecified NONE
2402001-03-14 10:19PSTYes???USGS761011.87 Unspecified NONE
2392000-04-07 11:02PSTYes???USGS751010.12 Unspecified NONE
2382000-04-07 10:59PSTYes???USGS764010.16 Unspecified NONE
2372000-04-07 10:55PSTYes???USGS741010.18 Unspecified NONE
2362000-04-07 10:52PSTYes???USGS778010.26 Unspecified NONE
2352000-04-07 10:48PSTYes???USGS746010.32 Unspecified NONE
2342000-04-07 10:45PSTYes???USGS753010.35 Unspecified NONE
2332000-04-07 10:42PSTYes???USGS802010.36 Unspecified NONE
2322000-04-07 10:25PSTYes???USGS820010.53 Unspecified NONE
2312000-04-07 10:21PSTYes???USGS807010.57 Unspecified NONE
2302000-04-07 10:19PSTYes???USGS844010.60 Unspecified NONE
2292000-04-07 10:16PSTYes???USGS799010.63 Unspecified NONE
2282000-04-07 10:10PSTYes???USGS769010.69 Unspecified NONE
2272000-04-07 10:07PSTYes???USGS775010.72 Unspecified NONE
2262000-01-27 13:36PSTYes???USGS768011.18 Unspecified NONE
2252000-01-27 13:33PSTYes???USGS776011.22 Unspecified NONE
2242000-01-27 13:14PSTYes???USGS773011.35 Unspecified NONE
2232000-01-27 13:11PSTYes???USGS783011.42 Unspecified NONE
2222000-01-27 13:08PSTYes???USGS805011.50 Unspecified NONE
2212000-01-27 13:04PSTYes???USGS773011.59 Unspecified NONE
2201999-08-19 14:00PSTYes???USGS453011.02 Unspecified NONE
2191999-08-19 13:56PSTYes???USGS491011.03 Unspecified NONE
2181999-08-19 13:52PSTYes???USGS487011.04 Unspecified NONE
2171999-08-19 13:49PSTYes???USGS470011.05 Unspecified NONE
2161999-08-19 12:30PSTYes???USGS353011.45 Unspecified NONE
2151999-08-19 12:27PSTYes???USGS317011.47 Unspecified NONE
2141999-08-19 12:23PSTYes???USGS292011.49 Unspecified NONE
2131999-08-19 12:20PSTYes???USGS274011.50 Unspecified NONE
2121999-08-19 11:12PSTYes???USGS-281011.69 Unspecified NONE
2111999-08-19 11:09PSTYes???USGS-293011.68 Unspecified NONE
2101999-08-19 11:06PSTYes???USGS-304011.68 Unspecified NONE
2091999-08-19 11:03PSTYes???USGS-318011.67 Unspecified NONE
2081999-08-19 09:48PSTYes???USGS-547011.54 Unspecified NONE
2071999-08-19 09:44PSTYes???USGS-558011.52 Unspecified NONE
2061999-08-19 09:40PSTYes???USGS-577011.50 Unspecified NONE
2051999-08-19 09:36PSTYes???USGS-596011.48 Unspecified NONE
2041997-08-12 15:46PSTYes???USGS351011.57 Unspecified NONE
2031997-08-12 15:43PSTYes???USGS381011.56 Unspecified NONE
2021997-08-12 15:40PSTYes???USGS393011.54 Unspecified NONE
2011997-08-12 15:37PSTYes???USGS424011.53 Unspecified NONE
2001997-08-12 15:35PSTYes???USGS352011.53 Unspecified NONE
1991997-08-12 15:32PSTYes???USGS419011.56 Unspecified NONE
1981997-08-12 15:30PSTYes???USGS350011.59 Unspecified NONE
1971997-08-12 15:20PSTYes???USGS452011.59 Unspecified NONE
1961997-08-12 15:17PSTYes???USGS422011.59 Unspecified NONE
1951997-08-12 14:54PSTYes???USGS510011.64 Unspecified NONE
1941997-08-12 12:10PSTYes???USGS-11812.30 Unspecified NONE
1931997-08-12 12:07PSTYes???USGS-46612.32 Unspecified NONE
1921997-08-12 12:04PSTYes???USGS-87112.33 Unspecified NONE
1911997-08-12 12:02PSTYes???USGS-80812.34 Unspecified NONE
1901997-08-12 11:59PSTYes???USGS-149012.35 Unspecified NONE
1891997-08-12 11:41PSTYes???USGS-248012.37 Unspecified NONE
1881997-08-12 11:37PSTYes???USGS-263012.38 Unspecified NONE
1871997-08-12 11:34PSTYes???USGS-295012.38 Unspecified NONE
1861997-08-12 11:31PSTYes???USGS-260012.39 Unspecified NONE
1851997-08-12 11:29PSTYes???USGS-309012.39 Unspecified NONE
1841997-08-12 11:26PSTYes???USGS-311012.37 Unspecified NONE
1831997-08-12 11:23PSTYes???USGS-346012.36 Unspecified NONE
1821997-08-12 11:20PSTYes???USGS-310012.35 Unspecified NONE
1811997-08-12 11:17PSTYes???USGS-361012.36 Unspecified NONE
1801997-08-12 11:14PSTYes???USGS-379012.36 Unspecified NONE
1791997-08-12 11:12PSTYes???USGS-369012.37 Unspecified NONE
1781997-08-12 11:09PSTYes???USGS-387012.37 Unspecified NONE
1771997-08-12 11:05PSTYes???USGS-415012.36 Unspecified NONE
1761997-08-12 10:58PSTYes???USGS-432012.34 Unspecified NONE
1751996-08-29 13:13PSTYes???USGS-784011.22 Unspecified NONE
1741996-08-29 13:09PSTYes???USGS-767011.17 Unspecified NONE
1731996-08-29 13:05PSTYes???USGS-787011.13 Unspecified NONE
1721996-08-29 09:23PSTYes???USGS627010.26 Unspecified NONE
1711996-08-29 09:18PSTYes???USGS703010.30 Unspecified NONE
1701996-08-29 09:12PSTYes???USGS664010.35 Unspecified NONE
1691996-08-29 09:08PSTYes???USGS689010.39 Unspecified NONE
1681996-08-29 07:51PSTYes???USGS772011.08 Unspecified NONE
1671996-08-29 07:47PSTYes???USGS754011.12 Unspecified NONE
1661996-08-29 07:42PSTYes???USGS752011.15 Unspecified NONE
1651996-08-29 07:38PSTYes???USGS776011.19 Unspecified NONE
1641996-08-29 07:34PSTYes???USGS775011.22 Unspecified NONE
1631996-08-28 15:42PSTYes???USGS-701012.46 Unspecified NONE
1621996-08-28 15:38PSTYes???USGS-727012.44 Unspecified NONE
1611996-08-28 15:34PSTYes???USGS-712012.43 Unspecified NONE
1601996-08-28 15:29PSTYes???USGS-727012.41 Unspecified NONE
1591996-08-28 14:09PSTYes???USGS-806011.88 Unspecified NONE
1581996-08-28 14:05PSTYes???USGS-815011.85 Unspecified NONE
1571996-08-28 13:59PSTYes???USGS-767011.82 Unspecified NONE
1561996-08-28 13:48PSTYes???USGS-776011.75 Unspecified NONE
1551996-08-28 13:43PSTYes???USGS-763011.72 Unspecified NONE
1541996-08-28 13:27PSTYes???USGS-788011.62 Unspecified NONE
1531996-08-28 13:21PSTYes???USGS-792011.59 Unspecified NONE
1521996-08-28 13:16PSTYes???USGS-794011.55 Unspecified NONE
1511996-08-28 13:11PSTYes???USGS-836011.51 Unspecified NONE
1501996-08-28 13:07PSTYes???USGS-797011.47 Unspecified NONE
1491996-08-28 12:58PSTYes???USGS-816011.38 Unspecified NONE
1481996-08-28 12:48PSTYes???USGS-772011.28 Unspecified NONE
1471996-08-27 16:29PSTYes???USGS56012.34 Unspecified NONE
1461996-08-27 16:25PSTYes???USGS-19012.37 Unspecified NONE
1451996-08-27 16:20PSTYes???USGS-82412.41 Unspecified NONE
1441996-08-27 16:16PSTYes???USGS-138012.44 Unspecified NONE
1431996-08-27 16:12PSTYes???USGS-203012.47 Unspecified NONE
1421996-08-27 16:09PSTYes???USGS-224012.49 Unspecified NONE
1411996-08-27 16:05PSTYes???USGS-253012.50 Unspecified NONE
1401996-08-27 16:01PSTYes???USGS-302012.52 Unspecified NONE
1391996-08-27 15:57PSTYes???USGS-344012.53 Unspecified NONE
1381996-08-27 15:54PSTYes???USGS-342012.54 Unspecified NONE
1371996-08-27 15:42PSTYes???USGS-451012.57 Unspecified NONE
1361996-08-27 15:37PSTYes???USGS-494012.57 Unspecified NONE
1351996-08-27 15:32PSTYes???USGS-520012.57 Unspecified NONE
1341996-08-27 15:28PSTYes???USGS-530012.57 Unspecified NONE
1331996-08-27 15:25PSTYes???USGS-552012.57 Unspecified NONE
1321996-08-27 15:21PSTYes???USGS-579012.55 Unspecified NONE
1311996-08-27 15:17PSTYes???USGS-613012.54 Unspecified NONE
1301996-08-27 15:14PSTYes???USGS-612012.54 Unspecified NONE
1291996-08-27 15:10PSTYes???USGS-609012.53 Unspecified NONE
1281996-08-27 15:05PSTYes???USGS-637012.51 Unspecified NONE
1271996-08-27 15:01PSTYes???USGS-641012.50 Unspecified NONE
1261996-08-27 14:56PSTYes???USGS-655012.49 Unspecified NONE
1251996-08-27 14:51PSTYes???USGS-676012.46 Unspecified NONE
1241996-08-27 14:46PSTYes???USGS-676012.43 Unspecified NONE
1231996-08-27 14:41PSTYes???USGS-707012.41 Unspecified NONE
1221996-08-27 14:37PSTYes???USGS-719012.38 Unspecified NONE
1211996-08-27 14:32PSTYes???USGS-749012.36 Unspecified NONE
1201996-08-27 14:27PSTYes???USGS-729012.33 Unspecified NONE
1191996-08-27 14:21PSTYes???USGS-736012.31 Unspecified NONE
1181996-08-27 14:17PSTYes???USGS-701012.29 Unspecified NONE
1171996-08-27 14:13PSTYes???USGS-733012.27 Unspecified NONE
1161996-08-27 14:10PSTYes???USGS-714012.24 Unspecified NONE
1151996-08-27 14:06PSTYes???USGS-752012.22 Unspecified NONE
1141996-08-27 14:02PSTYes???USGS-768012.19 Unspecified NONE
1131996-08-27 13:58PSTYes???USGS-746012.17 Unspecified NONE
1121996-08-27 13:53PSTYes???USGS-755012.14 Unspecified NONE
1111996-08-27 13:49PSTYes???USGS-761012.11 Unspecified NONE
1101996-08-27 13:44PSTYes???USGS-767012.08 Unspecified NONE
1091996-08-27 13:39PSTYes???USGS-740012.05 Unspecified NONE
1081996-08-27 13:34PSTYes???USGS-746012.02 Unspecified NONE
1071996-08-27 13:29PSTYes???USGS-742011.99 Unspecified NONE
1061996-08-27 13:24PSTYes???USGS-770011.96 Unspecified NONE
1051996-08-27 13:19PSTYes???USGS-766011.93 Unspecified NONE
1041996-08-27 13:14PSTYes???USGS-787011.91 Unspecified NONE
1031996-08-27 13:09PSTYes???USGS-777011.89 Unspecified NONE
1021996-08-27 13:05PSTYes???USGS-760011.86 Unspecified NONE
1011996-08-27 12:59PSTYes???USGS-807011.83 Unspecified NONE
1001996-08-27 12:55PSTYes???USGS-776011.80 Unspecified NONE
991996-08-27 12:51PSTYes???USGS-780011.77 Unspecified NONE
981996-08-27 12:46PSTYes???USGS-785011.75 Unspecified NONE
971996-08-27 12:42PSTYes???USGS-805011.71 Unspecified NONE
961996-08-27 12:37PSTYes???USGS-793011.68 Unspecified NONE
951996-08-27 12:32PSTYes???USGS-791011.64 Unspecified NONE
941996-08-27 12:28PSTYes???USGS-791011.61 Unspecified NONE
931996-08-27 12:24PSTYes???USGS-787011.57 Unspecified NONE
921996-08-27 12:20PSTYes???USGS-779011.53 Unspecified NONE
911996-08-27 12:15PSTYes???USGS-757011.49 Unspecified NONE
901996-08-27 12:11PSTYes???USGS-766011.45 Unspecified NONE
891996-08-27 12:06PSTYes???USGS-782011.40 Unspecified NONE
881996-08-27 12:01PSTYes???USGS-754011.35 Unspecified NONE
871996-08-27 11:56PSTYes???USGS-737011.30 Unspecified NONE
861996-08-27 09:45PSTYes???USGS54209.81 Unspecified NONE
851996-08-27 09:41PSTYes???USGS53409.83 Unspecified NONE
841996-08-27 09:36PSTYes???USGS55009.83 Unspecified NONE
831996-08-27 09:32PSTYes???USGS57209.85 Unspecified NONE
821996-06-28 13:09PSTYes???USGS-611011.55 Unspecified NONE
811996-06-28 13:03PSTYes???USGS-627011.52 Unspecified NONE
801996-06-28 12:55PSTYes???USGS-616011.48 Unspecified NONE
791996-06-28 12:49PSTYes???USGS-629011.45 Unspecified NONE
781996-06-28 12:45PSTYes???USGS-628011.42 Unspecified NONE
771996-06-28 12:40PSTYes???USGS-681011.40 Unspecified NONE
761996-06-28 12:35PSTYes???USGS-698011.37 Unspecified NONE
751996-06-28 10:14PSTYes???USGS-233010.09 Unspecified NONE
741996-06-28 10:08PSTYes???USGS-99410.00 Unspecified NONE
731996-06-28 10:02PSTYes???USGS-3179.91 Unspecified NONE
721996-06-28 09:57PSTYes???USGS5149.84 Unspecified NONE
711996-06-28 09:52PSTYes???USGS10409.78 Unspecified NONE
701996-06-28 09:47PSTYes???USGS13909.72 Unspecified NONE
691996-06-28 09:41PSTYes???USGS25409.65 Unspecified NONE
681996-06-28 09:36PSTYes???USGS28109.61 Unspecified NONE
671996-06-28 09:32PSTYes???USGS37209.57 Unspecified NONE
661996-06-28 09:27PSTYes???USGS32509.52 Unspecified NONE
651996-06-28 06:49PSTYes???USGS650010.30 Unspecified NONE
641996-06-28 06:42PSTYes???USGS673010.36 Unspecified NONE
631996-06-28 06:34PSTYes???USGS703010.43 Unspecified NONE
621996-06-27 13:40PSTYes???USGS-350011.82 Unspecified NONE
611996-06-27 13:36PSTYes???USGS-374011.82 Unspecified NONE
601996-06-27 13:33PSTYes???USGS-412011.82 Unspecified NONE
591996-06-27 13:28PSTYes???USGS-431011.81 Unspecified NONE
581996-06-27 13:24PSTYes???USGS-444011.80 Unspecified NONE
571996-06-27 13:18PSTYes???USGS-410011.79 Unspecified NONE
561996-06-27 13:13PSTYes???USGS-460011.78 Unspecified NONE
551996-06-27 11:42PSTYes???USGS-650011.41 Unspecified NONE
541996-06-27 11:37PSTYes???USGS-677011.38 Unspecified NONE
531996-06-27 11:31PSTYes???USGS-692011.35 Unspecified NONE
521996-06-27 11:26PSTYes???USGS-711011.31 Unspecified NONE
511996-06-27 11:21PSTYes???USGS-698011.28 Unspecified NONE
501996-06-27 09:48PSTYes???USGS-557010.57 Unspecified NONE
491996-06-27 09:42PSTYes???USGS-510010.51 Unspecified NONE
481996-06-27 09:36PSTYes???USGS-439010.44 Unspecified NONE
471996-06-27 09:31PSTYes???USGS-382010.38 Unspecified NONE
461996-06-27 09:27PSTYes???USGS-301010.33 Unspecified NONE
451996-04-23 12:19PSTYes???USGS646010.34 Unspecified NONE
441996-04-23 12:17PSTYes???USGS613010.36 Unspecified NONE
431996-04-23 12:14PSTYes???USGS646010.37 Unspecified NONE
421996-04-23 12:12PSTYes???USGS628010.36 Unspecified NONE
411996-04-23 12:09PSTYes???USGS655010.37 Unspecified NONE
401996-04-23 12:07PSTYes???USGS632010.39 Unspecified NONE
391996-04-23 12:05PSTYes???USGS648010.42 Unspecified NONE
381996-04-23 09:52PSTYes???USGS626011.47 Unspecified NONE
371996-04-23 09:45PSTYes???USGS654011.51 Unspecified NONE
361996-04-23 08:11PSTYes???USGS457012.26 Unspecified NONE
351996-04-23 07:36PSTYes???USGS41712.51 Unspecified NONE
341996-04-23 07:33PSTYes???USGS32112.53 Unspecified NONE
331996-04-23 07:30PSTYes???USGS86.012.54 Unspecified NONE
321996-04-23 07:27PSTYes???USGS-75912.53 Unspecified NONE
311996-04-23 07:25PSTYes???USGS-88712.53 Unspecified NONE
301996-04-23 07:22PSTYes???USGS-115012.55 Unspecified NONE
291996-04-22 14:07PSTYes???USGS53609.38 Unspecified NONE
281996-04-22 14:02PSTYes???USGS55409.38 Unspecified NONE
271996-04-22 13:59PSTYes???USGS54809.38 Unspecified NONE
261996-04-22 13:56PSTYes???USGS52409.39 Unspecified NONE
251996-04-22 13:54PSTYes???USGS55509.40 Unspecified NONE
241996-04-22 13:51PSTYes???USGS53809.41 Unspecified NONE
231996-04-22 13:48PSTYes???USGS54509.41 Unspecified NONE
221996-04-22 13:46PSTYes???USGS53809.42 Unspecified NONE
211996-04-22 13:40PSTYes???USGS56409.44 Unspecified NONE
201996-04-22 13:38PSTYes???USGS58209.45 Unspecified NONE
191996-04-22 13:35PSTYes???USGS57709.46 Unspecified NONE
181996-04-22 13:24PSTYes???USGS60109.51 Unspecified NONE
171996-04-22 13:22PSTYes???USGS59609.52 Unspecified NONE
161996-04-22 13:19PSTYes???USGS61909.54 Unspecified NONE
151996-04-22 13:11PSTYes???USGS58909.58 Unspecified NONE
141996-04-22 13:08PSTYes???USGS58309.59 Unspecified NONE
131996-04-22 13:06PSTYes???USGS62709.61 Unspecified NONE
121996-04-22 13:03PSTYes???USGS67409.63 Unspecified NONE
111996-04-22 12:58PSTYes???USGS60109.66 Unspecified NONE
101996-04-22 12:52PSTYes???USGS61609.71 Unspecified NONE
91996-04-22 12:49PSTYes???USGS62809.74 Unspecified NONE
81996-04-22 12:47PSTYes???USGS63809.75 Unspecified NONE
71996-04-22 12:44PSTYes???USGS65309.77 Unspecified NONE
61996-04-22 12:42PSTYes???USGS63809.79 Unspecified NONE
51996-04-22 12:39PSTYes???USGS62109.81 Unspecified NONE
41996-04-22 12:36PSTYes???USGS67309.83 Unspecified NONE
31996-04-22 12:34PSTYes???USGS64309.86 Unspecified NONE
21996-04-22 12:28PSTYes???USGS63109.90 Unspecified NONE
11996-04-22 12:25PSTYes???USGS65509.90 Unspecified NONE